GFSSW_prec_precacc_120.txt.gz
Total_Precipitation_Accumulation
0.02 0.01 0.01 0.01 0.00 0.00 0.00 0.00 0.00 0.00 0.00 0.00 0.00 0.00 0.00 0.00 0.00 0.00 0.00 0.00 0.00 0.00 0.00 0.00 0.00 0.00 0.00 0.00 0.00 0.00 0.00 0.00 0.01 0.02 0.18 0.25 0.17 0.26 0.11 0.01 0.04 0.21 1.07 0.42 0.22
0.02 0.02 0.02 0.02 0.01 0.00 0.00 0.00 0.00 0.00 0.00 0.00 0.00 0.00 0.00 0.00 0.00 0.00 0.00 0.00 0.00 0.00 0.00 0.00 0.00 0.00 0.00 0.00 0.00 0.00 0.00 0.00 0.03 0.08 0.25 0.33 0.04 0.18 0.07 0.03 0.19 0.63 1.02 0.34 0.21
0.01 0.02 0.02 0.01 0.00 0.00 0.00 0.00 0.00 0.00 0.00 0.00 0.00 0.00 0.00 0.00 0.00 0.00 0.00 0.00 0.00 0.00 0.00 0.00 0.00 0.00 0.00 0.00 0.00 0.00 0.00 0.00 0.00 0.06 0.10 0.29 0.01 0.05 0.03 0.06 0.42 0.46 0.60 0.36 0.34
0.00 0.00 0.01 0.01 0.00 0.00 0.00 0.00 0.00 0.00 0.00 0.00 0.00 0.00 0.00 0.00 0.00 0.00 0.00 0.00 0.00 0.00 0.00 0.00 0.00 0.00 0.00 0.00 0.00 0.00 0.00 0.00 0.00 0.00 0.00 0.00 0.07 0.15 0.09 0.10 0.21 0.45 0.47 0.33 0.41
0.00 0.00 0.00 0.00 0.00 0.00 0.00 0.00 0.00 0.00 0.00 0.00 0.00 0.00 0.00 0.00 0.00 0.00 0.00 0.00 0.00 0.00 0.00 0.00 0.00 0.00 0.00 0.00 0.00 0.00 0.00 0.00 0.00 0.01 0.00 0.01 0.09 0.11 0.01 0.05 0.22 0.39 0.26 0.25 0.29
0.01 0.00 0.00 0.00 0.00 0.00 0.00 0.00 0.00 0.00 0.00 0.00 0.00 0.00 0.00 0.00 0.00 0.00 0.00 0.00 0.00 0.00 0.00 0.00 0.00 0.00 0.00 0.00 0.00 0.00 0.00 0.00 0.00 0.00 0.00 0.00 0.18 0.02 0.11 0.13 0.30 0.94 0.29 0.16 0.19
0.01 0.00 0.00 0.01 0.01 0.01 0.01 0.00 0.00 0.00 0.00 0.00 0.00 0.00 0.00 0.00 0.00 0.00 0.00 0.00 0.00 0.00 0.00 0.00 0.00 0.00 0.00 0.00 0.00 0.00 0.00 0.00 0.04 0.02 0.00 0.02 0.06 0.02 0.16 0.27 0.40 0.34 0.16 0.04 0.04
0.01 0.01 0.00 0.00 0.01 0.00 0.00 0.00 0.00 0.00 0.00 0.00 0.00 0.00 0.00 0.00 0.00 0.00 0.00 0.00 0.00 0.00 0.00 0.00 0.00 0.00 0.00 0.00 0.00 0.00 0.00 0.00 0.05 0.01 0.00 0.01 0.13 0.25 0.31 0.13 0.33 0.47 0.10 0.03 0.00
0.01 0.00 0.00 0.00 0.00 0.01 0.00 0.00 0.00 0.00 0.00 0.00 0.00 0.00 0.00 0.00 0.00 0.00 0.00 0.00 0.00 0.00 0.00 0.00 0.00 0.00 0.00 0.01 0.00 0.00 0.00 0.00 0.00 0.00 0.00 0.00 0.00 0.03 0.15 0.27 0.39 0.29 0.04 0.00 0.00
0.01 0.00 0.00 0.00 0.01 0.01 0.00 0.00 0.00 0.00 0.00 0.00 0.01 0.01 0.00 0.00 0.00 0.00 0.00 0.01 0.01 0.00 0.00 0.00 0.00 0.00 0.00 0.00 0.00 0.00 0.00 0.00 0.00 0.00 0.00 0.00 0.00 0.00 0.02 0.06 0.06 0.05 0.02 0.01 0.00
0.02 0.01 0.00 0.01 0.01 0.02 0.00 0.00 0.00 0.00 0.00 0.00 0.00 0.00 0.00 0.00 0.00 0.00 0.00 0.00 0.00 0.00 0.02 0.00 0.00 0.00 0.00 0.00 0.00 0.00 0.00 0.00 0.00 0.00 0.00 0.00 0.00 0.00 0.00 0.01 0.03 0.04 0.03 0.01 0.00
0.02 0.01 0.01 0.01 0.03 0.02 0.00 0.00 0.00 0.00 0.00 0.00 0.00 0.00 0.00 0.00 0.00 0.00 0.00 0.00 0.00 0.00 0.01 0.00 0.00 0.00 0.00 0.00 0.00 0.00 0.00 0.00 0.00 0.00 0.00 0.00 0.00 0.00 0.00 0.00 0.00 0.01 0.01 0.00 0.00
0.02 0.01 0.01 0.02 0.04 0.01 0.01 0.00 0.00 0.00 0.01 0.00 0.00 0.00 0.00 0.00 0.00 0.00 0.00 0.00 0.00 0.00 0.00 0.01 0.01 0.00 0.00 0.00 0.00 0.00 0.00 0.00 0.00 0.00 0.00 0.00 0.00 0.00 0.00 0.01 0.01 0.01 0.00 0.00 0.00
0.03 0.01 0.02 0.04 0.02 0.00 0.00 0.00 0.00 0.00 0.01 0.00 0.00 0.00 0.00 0.00 0.00 0.00 0.00 0.00 0.00 0.00 0.00 0.02 0.00 0.00 0.00 0.00 0.00 0.01 0.00 0.00 0.00 0.00 0.02 0.00 0.00 0.01 0.00 0.00 0.00 0.01 0.01 0.01 0.00
0.04 0.02 0.03 0.06 0.02 0.00 0.00 0.00 0.00 0.03 0.02 0.00 0.00 0.00 0.00 0.00 0.00 0.00 0.00 0.00 0.00 0.00 0.00 0.01 0.00 0.00 0.00 0.00 0.00 0.01 0.00 0.00 0.00 0.00 0.01 0.02 0.00 0.02 0.00 0.00 0.00 0.00 0.00 0.00 0.00
0.05 0.04 0.07 0.05 0.02 0.00 0.01 0.02 0.11 0.12 0.05 0.00 0.00 0.00 0.00 0.00 0.00 0.00 0.00 0.00 0.00 0.00 0.00 0.01 0.01 0.01 0.01 0.00 0.00 0.00 0.00 0.00 0.00 0.00 0.00 0.01 0.02 0.01 0.01 0.01 0.03 0.02 0.00 0.00 0.00
0.09 0.07 0.11 0.05 0.02 0.01 0.04 0.16 0.24 0.09 0.00 0.00 0.00 0.00 0.00 0.00 0.00 0.00 0.00 0.01 0.06 0.10 0.02 0.00 0.00 0.01 0.01 0.00 0.00 0.00 0.00 0.01 0.11 0.05 0.02 0.05 0.05 0.03 0.00 0.00 0.01 0.01 0.00 0.00 0.01
0.13 0.15 0.12 0.05 0.00 0.07 0.20 0.58 0.38 0.01 0.00 0.01 0.00 0.00 0.04 0.03 0.03 0.03 0.06 0.09 0.09 0.16 0.09 0.02 0.01 0.01 0.01 0.00 0.03 0.01 0.01 0.04 0.09 0.06 0.06 0.06 0.02 0.01 0.01 0.00 0.00 0.00 0.00 0.00 0.00
0.31 0.22 0.20 0.05 0.05 0.19 0.47 0.70 0.19 0.03 0.10 0.10 0.01 0.02 0.05 0.08 0.09 0.09 0.18 0.34 0.42 0.41 0.42 0.16 0.08 0.01 0.00 0.01 0.01 0.02 0.02 0.00 0.00 0.02 0.04 0.01 0.00 0.00 0.00 0.00 0.00 0.00 0.00 0.00 0.00
0.42 0.40 0.13 0.03 0.18 0.49 0.74 0.22 0.01 0.02 0.01 0.01 0.03 0.03 0.02 0.05 0.11 0.24 0.46 0.46 0.26 0.33 0.43 0.33 0.29 0.05 0.05 0.02 0.00 0.01 0.00 0.01 0.00 0.00 0.03 0.00 0.01 0.02 0.02 0.01 0.01 0.00 0.00 0.00 0.00
0.77 0.81 0.14 0.11 0.66 1.05 0.64 0.06 0.00 0.00 0.00 0.00 0.00 0.02 0.01 0.08 0.12 0.34 0.63 0.58 0.16 0.12 0.25 0.40 0.34 0.16 0.27 0.20 0.06 0.11 0.05 0.01 0.00 0.00 0.04 0.08 0.02 0.00 0.01 0.01 0.02 0.01 0.00 0.01 0.02
1.44 1.12 0.39 0.40 0.82 0.53 0.18 0.03 0.01 0.00 0.00 0.00 0.00 0.02 0.08 0.11 0.15 0.27 0.52 0.40 0.15 0.17 0.17 0.35 0.39 0.12 0.10 0.33 0.14 0.04 0.07 0.02 0.02 0.02 0.01 0.03 0.01 0.00 0.00 0.00 0.02 0.04 0.01 0.00 0.00
1.80 0.97 1.05 0.92 0.89 0.28 0.09 0.04 0.01 0.00 0.00 0.01 0.02 0.07 0.07 0.06 0.13 0.06 0.15 0.04 0.02 0.13 0.36 0.39 0.41 0.24 0.19 0.37 0.25 0.16 0.03 0.01 0.01 0.00 0.01 0.05 0.02 0.04 0.04 0.02 0.02 0.06 0.11 0.06 0.00
2.09 1.39 1.71 1.42 0.46 0.28 0.30 0.21 0.11 0.01 0.01 0.04 0.04 0.06 0.05 0.03 0.08 0.08 0.06 0.07 0.01 0.02 0.10 0.40 0.57 0.52 0.49 0.33 0.36 0.34 0.18 0.06 0.05 0.03 0.00 0.00 0.02 0.10 0.11 0.14 0.21 0.31 0.35 0.46 0.04
2.72 0.86 0.59 0.89 0.65 0.22 0.18 0.20 0.15 0.13 0.06 0.05 0.04 0.06 0.11 0.07 0.03 0.03 0.10 0.10 0.08 0.03 0.01 0.19 0.44 0.35 0.17 0.03 0.02 0.18 0.20 0.09 0.10 0.05 0.04 0.00 0.00 0.02 0.15 0.19 0.26 0.17 0.10 0.10 0.07
2.38 0.43 0.26 0.17 0.16 0.28 0.30 0.18 0.15 0.11 0.13 0.12 0.03 0.01 0.02 0.05 0.06 0.05 0.08 0.27 0.21 0.22 0.17 0.17 0.23 0.11 0.09 0.03 0.02 0.07 0.28 0.15 0.05 0.08 0.06 0.02 0.00 0.00 0.05 0.17 0.35 0.29 0.16 0.12 0.15
1.75 0.28 0.47 0.30 0.21 0.34 0.26 0.14 0.14 0.10 0.07 0.05 0.05 0.05 0.05 0.06 0.07 0.11 0.09 0.14 0.27 0.43 0.43 0.29 0.24 0.16 0.07 0.03 0.07 0.31 0.23 0.32 0.28 0.14 0.08 0.12 0.05 0.06 0.14 0.32 0.55 1.03 0.64 0.19 0.06

GFSSW_prec_precacc_123.txt.gz
Total_Precipitation_Accumulation
0.02 0.01 0.01 0.01 0.00 0.00 0.00 0.00 0.00 0.00 0.00 0.00 0.00 0.00 0.00 0.00 0.00 0.00 0.00 0.00 0.00 0.00 0.00 0.00 0.00 0.00 0.00 0.00 0.00 0.00 0.00 0.00 0.01 0.02 0.18 0.25 0.17 0.26 0.11 0.01 0.04 0.21 1.07 0.42 0.22
0.02 0.02 0.02 0.02 0.01 0.00 0.00 0.00 0.00 0.00 0.00 0.00 0.00 0.00 0.00 0.00 0.00 0.00 0.00 0.00 0.00 0.00 0.00 0.00 0.00 0.00 0.00 0.00 0.00 0.00 0.00 0.00 0.03 0.08 0.25 0.33 0.04 0.18 0.07 0.03 0.19 0.63 1.02 0.34 0.21
0.01 0.02 0.02 0.01 0.00 0.00 0.00 0.00 0.00 0.00 0.00 0.00 0.00 0.00 0.00 0.00 0.00 0.00 0.00 0.00 0.00 0.00 0.00 0.00 0.00 0.00 0.00 0.00 0.00 0.00 0.00 0.00 0.00 0.06 0.10 0.29 0.01 0.05 0.03 0.06 0.42 0.46 0.60 0.36 0.34
0.00 0.00 0.01 0.01 0.00 0.00 0.00 0.00 0.00 0.00 0.00 0.00 0.00 0.00 0.00 0.00 0.00 0.00 0.00 0.00 0.00 0.00 0.00 0.00 0.00 0.00 0.00 0.00 0.00 0.00 0.00 0.00 0.00 0.00 0.00 0.00 0.07 0.15 0.09 0.10 0.21 0.45 0.47 0.33 0.41
0.00 0.00 0.00 0.00 0.00 0.00 0.00 0.00 0.00 0.00 0.00 0.00 0.00 0.00 0.00 0.00 0.00 0.00 0.00 0.00 0.00 0.00 0.00 0.00 0.00 0.00 0.00 0.00 0.00 0.00 0.00 0.00 0.00 0.01 0.00 0.01 0.09 0.11 0.01 0.05 0.22 0.39 0.26 0.25 0.29
0.01 0.00 0.00 0.00 0.00 0.00 0.00 0.00 0.00 0.00 0.00 0.00 0.00 0.00 0.00 0.00 0.00 0.00 0.00 0.00 0.00 0.00 0.00 0.00 0.00 0.00 0.00 0.00 0.00 0.00 0.00 0.00 0.00 0.00 0.00 0.00 0.18 0.02 0.11 0.13 0.30 0.94 0.29 0.16 0.19
0.01 0.00 0.00 0.01 0.01 0.01 0.01 0.00 0.00 0.00 0.00 0.00 0.00 0.00 0.00 0.00 0.00 0.00 0.00 0.00 0.00 0.00 0.00 0.00 0.00 0.00 0.00 0.00 0.00 0.00 0.00 0.00 0.04 0.02 0.00 0.02 0.06 0.02 0.16 0.27 0.40 0.34 0.16 0.04 0.04
0.01 0.01 0.00 0.00 0.01 0.00 0.00 0.00 0.00 0.00 0.00 0.00 0.00 0.00 0.00 0.00 0.00 0.00 0.00 0.00 0.00 0.00 0.00 0.00 0.00 0.00 0.00 0.00 0.00 0.00 0.00 0.00 0.05 0.01 0.00 0.01 0.13 0.25 0.31 0.13 0.33 0.47 0.10 0.03 0.00
0.01 0.00 0.00 0.00 0.00 0.01 0.00 0.00 0.00 0.00 0.00 0.00 0.00 0.00 0.00 0.00 0.00 0.00 0.00 0.00 0.00 0.00 0.00 0.00 0.00 0.00 0.00 0.01 0.00 0.00 0.00 0.00 0.00 0.00 0.00 0.00 0.00 0.03 0.15 0.27 0.39 0.29 0.04 0.00 0.00
0.01 0.00 0.00 0.00 0.01 0.01 0.00 0.00 0.00 0.00 0.00 0.00 0.01 0.01 0.00 0.00 0.00 0.00 0.00 0.01 0.01 0.00 0.00 0.00 0.00 0.00 0.00 0.00 0.00 0.00 0.00 0.00 0.00 0.00 0.00 0.00 0.00 0.00 0.02 0.06 0.06 0.05 0.02 0.01 0.00
0.02 0.01 0.00 0.01 0.01 0.02 0.00 0.00 0.00 0.00 0.00 0.00 0.00 0.00 0.00 0.00 0.00 0.00 0.00 0.00 0.00 0.00 0.02 0.00 0.00 0.00 0.00 0.00 0.00 0.00 0.00 0.00 0.00 0.00 0.00 0.00 0.00 0.00 0.00 0.01 0.03 0.04 0.03 0.01 0.00
0.02 0.01 0.01 0.01 0.03 0.02 0.00 0.00 0.00 0.00 0.00 0.00 0.00 0.00 0.00 0.00 0.00 0.00 0.00 0.00 0.00 0.00 0.01 0.00 0.00 0.00 0.00 0.00 0.00 0.00 0.00 0.00 0.00 0.00 0.00 0.00 0.00 0.00 0.00 0.00 0.00 0.01 0.01 0.00 0.00
0.02 0.01 0.01 0.02 0.04 0.01 0.01 0.00 0.00 0.00 0.01 0.00 0.00 0.00 0.00 0.00 0.00 0.00 0.00 0.00 0.00 0.00 0.00 0.01 0.01 0.00 0.00 0.00 0.00 0.00 0.00 0.00 0.00 0.00 0.00 0.00 0.00 0.00 0.00 0.01 0.01 0.01 0.00 0.00 0.00
0.03 0.01 0.02 0.04 0.02 0.00 0.00 0.00 0.00 0.00 0.01 0.00 0.00 0.00 0.00 0.00 0.00 0.00 0.00 0.00 0.00 0.00 0.00 0.02 0.00 0.00 0.00 0.00 0.00 0.01 0.00 0.00 0.00 0.00 0.02 0.00 0.00 0.01 0.00 0.00 0.00 0.01 0.01 0.01 0.00
0.04 0.02 0.03 0.06 0.02 0.00 0.00 0.00 0.00 0.03 0.02 0.00 0.00 0.00 0.00 0.00 0.00 0.00 0.00 0.00 0.00 0.00 0.00 0.01 0.00 0.00 0.00 0.00 0.00 0.01 0.00 0.00 0.00 0.00 0.01 0.02 0.00 0.02 0.00 0.00 0.00 0.00 0.00 0.00 0.00
0.05 0.04 0.07 0.05 0.02 0.00 0.01 0.02 0.11 0.12 0.05 0.00 0.00 0.00 0.00 0.00 0.00 0.00 0.00 0.00 0.00 0.00 0.00 0.01 0.01 0.01 0.01 0.00 0.00 0.00 0.00 0.00 0.00 0.00 0.00 0.01 0.02 0.01 0.01 0.01 0.03 0.02 0.00 0.00 0.00
0.09 0.07 0.11 0.05 0.02 0.01 0.04 0.16 0.24 0.09 0.00 0.00 0.00 0.00 0.00 0.00 0.00 0.00 0.00 0.01 0.06 0.10 0.02 0.00 0.00 0.01 0.01 0.00 0.00 0.00 0.02 0.03 0.12 0.05 0.02 0.05 0.05 0.03 0.00 0.00 0.01 0.01 0.00 0.00 0.01
0.13 0.15 0.12 0.05 0.00 0.07 0.20 0.58 0.38 0.01 0.00 0.01 0.00 0.00 0.04 0.03 0.03 0.03 0.06 0.09 0.09 0.16 0.09 0.02 0.01 0.01 0.01 0.00 0.04 0.01 0.02 0.11 0.13 0.06 0.06 0.06 0.02 0.01 0.01 0.00 0.00 0.00 0.00 0.00 0.00
0.31 0.22 0.20 0.05 0.05 0.19 0.47 0.70 0.19 0.03 0.10 0.10 0.01 0.02 0.05 0.08 0.09 0.09 0.18 0.34 0.42 0.41 0.43 0.16 0.08 0.01 0.00 0.01 0.03 0.09 0.05 0.03 0.05 0.03 0.04 0.01 0.00 0.00 0.00 0.00 0.00 0.00 0.00 0.00 0.00
0.42 0.40 0.13 0.03 0.18 0.49 0.74 0.22 0.01 0.02 0.01 0.01 0.03 0.03 0.02 0.05 0.11 0.24 0.46 0.46 0.26 0.33 0.43 0.33 0.29 0.05 0.05 0.03 0.02 0.09 0.07 0.08 0.03 0.01 0.03 0.00 0.01 0.02 0.02 0.01 0.01 0.00 0.00 0.00 0.00
0.77 0.81 0.14 0.11 0.66 1.05 0.64 0.06 0.00 0.00 0.00 0.00 0.00 0.02 0.01 0.08 0.12 0.34 0.63 0.58 0.16 0.12 0.25 0.40 0.34 0.16 0.27 0.26 0.09 0.15 0.26 0.14 0.09 0.01 0.04 0.08 0.02 0.00 0.01 0.01 0.02 0.01 0.01 0.03 0.14
1.44 1.12 0.39 0.40 0.82 0.53 0.18 0.03 0.01 0.00 0.00 0.00 0.00 0.02 0.08 0.11 0.15 0.27 0.52 0.40 0.15 0.17 0.17 0.35 0.39 0.12 0.10 0.33 0.14 0.05 0.15 0.12 0.16 0.07 0.01 0.03 0.01 0.00 0.00 0.00 0.02 0.05 0.03 0.08 0.21
1.80 0.97 1.05 0.92 0.89 0.28 0.09 0.04 0.01 0.00 0.00 0.01 0.02 0.07 0.07 0.06 0.13 0.06 0.15 0.04 0.02 0.13 0.36 0.39 0.41 0.25 0.19 0.37 0.25 0.16 0.03 0.02 0.03 0.04 0.02 0.05 0.02 0.04 0.04 0.03 0.11 0.19 0.24 0.21 0.14
2.09 1.39 1.71 1.42 0.46 0.28 0.30 0.21 0.11 0.01 0.01 0.04 0.04 0.06 0.05 0.03 0.08 0.08 0.06 0.07 0.01 0.02 0.10 0.40 0.57 0.54 0.51 0.33 0.36 0.34 0.18 0.08 0.10 0.08 0.01 0.01 0.02 0.12 0.12 0.16 0.37 0.60 0.59 0.78 0.46
2.72 0.86 0.59 0.89 0.65 0.22 0.18 0.20 0.15 0.13 0.06 0.05 0.04 0.06 0.11 0.07 0.03 0.03 0.10 0.10 0.08 0.03 0.01 0.19 0.44 0.35 0.17 0.03 0.02 0.18 0.20 0.16 0.20 0.10 0.07 0.00 0.02 0.08 0.18 0.21 0.36 0.51 0.61 0.31 0.23
2.38 0.43 0.26 0.17 0.16 0.28 0.30 0.18 0.15 0.11 0.13 0.12 0.03 0.01 0.02 0.05 0.06 0.05 0.08 0.27 0.21 0.22 0.17 0.17 0.23 0.11 0.09 0.03 0.02 0.08 0.37 0.37 0.19 0.14 0.10 0.04 0.03 0.04 0.09 0.18 0.43 0.62 0.47 0.69 0.24
1.75 0.28 0.47 0.30 0.21 0.34 0.26 0.14 0.14 0.10 0.07 0.05 0.05 0.05 0.05 0.06 0.07 0.11 0.09 0.14 0.27 0.43 0.43 0.29 0.24 0.16 0.08 0.03 0.09 0.44 0.42 0.52 0.88 0.27 0.17 0.30 0.16 0.12 0.16 0.33 0.56 1.17 2.03 1.29 0.46

GFSSW_prec_precacc_126.txt.gz
Total_Precipitation_Accumulation
0.02 0.01 0.01 0.01 0.00 0.00 0.00 0.00 0.00 0.00 0.00 0.00 0.00 0.00 0.00 0.00 0.00 0.00 0.00 0.00 0.00 0.00 0.00 0.00 0.00 0.00 0.00 0.00 0.00 0.00 0.00 0.00 0.01 0.02 0.18 0.25 0.17 0.26 0.11 0.01 0.04 0.21 1.07 0.42 0.22
0.02 0.02 0.02 0.02 0.01 0.00 0.00 0.00 0.00 0.00 0.00 0.00 0.00 0.00 0.00 0.00 0.00 0.00 0.00 0.00 0.00 0.00 0.00 0.00 0.00 0.00 0.00 0.00 0.00 0.00 0.00 0.00 0.03 0.08 0.25 0.33 0.04 0.18 0.07 0.03 0.19 0.63 1.02 0.34 0.21
0.01 0.02 0.02 0.01 0.00 0.00 0.00 0.00 0.00 0.00 0.00 0.00 0.00 0.00 0.00 0.00 0.00 0.00 0.00 0.00 0.00 0.00 0.00 0.00 0.00 0.00 0.00 0.00 0.00 0.00 0.00 0.00 0.00 0.06 0.10 0.29 0.01 0.05 0.03 0.06 0.42 0.46 0.60 0.36 0.34
0.00 0.00 0.01 0.01 0.00 0.00 0.00 0.00 0.00 0.00 0.00 0.00 0.00 0.00 0.00 0.00 0.00 0.00 0.00 0.00 0.00 0.00 0.00 0.00 0.00 0.00 0.00 0.00 0.00 0.00 0.00 0.00 0.00 0.00 0.00 0.00 0.07 0.15 0.09 0.10 0.21 0.45 0.47 0.33 0.41
0.00 0.00 0.00 0.00 0.00 0.00 0.00 0.00 0.00 0.00 0.00 0.00 0.00 0.00 0.00 0.00 0.00 0.00 0.00 0.00 0.00 0.00 0.00 0.00 0.00 0.00 0.00 0.00 0.00 0.00 0.00 0.00 0.00 0.01 0.00 0.01 0.09 0.11 0.01 0.05 0.22 0.39 0.26 0.25 0.29
0.01 0.00 0.00 0.00 0.00 0.00 0.00 0.00 0.00 0.00 0.00 0.00 0.00 0.00 0.00 0.00 0.00 0.00 0.00 0.00 0.00 0.00 0.00 0.00 0.00 0.00 0.00 0.00 0.00 0.00 0.00 0.00 0.00 0.00 0.00 0.00 0.18 0.02 0.11 0.13 0.30 0.94 0.29 0.16 0.19
0.01 0.00 0.00 0.01 0.01 0.01 0.01 0.00 0.00 0.00 0.00 0.00 0.00 0.00 0.00 0.00 0.00 0.00 0.00 0.00 0.00 0.00 0.00 0.00 0.00 0.00 0.00 0.00 0.00 0.00 0.00 0.00 0.04 0.02 0.00 0.02 0.06 0.02 0.16 0.27 0.40 0.34 0.16 0.04 0.04
0.01 0.01 0.00 0.00 0.01 0.00 0.00 0.00 0.00 0.00 0.00 0.00 0.00 0.00 0.00 0.00 0.00 0.00 0.00 0.00 0.00 0.00 0.00 0.00 0.00 0.00 0.00 0.00 0.00 0.00 0.00 0.00 0.05 0.01 0.00 0.01 0.13 0.25 0.31 0.13 0.33 0.47 0.10 0.03 0.00
0.01 0.00 0.00 0.00 0.00 0.01 0.00 0.00 0.00 0.00 0.00 0.00 0.00 0.00 0.00 0.00 0.00 0.00 0.00 0.00 0.00 0.00 0.00 0.00 0.00 0.00 0.00 0.01 0.00 0.00 0.00 0.00 0.00 0.00 0.00 0.00 0.00 0.03 0.15 0.27 0.39 0.29 0.04 0.00 0.00
0.01 0.00 0.00 0.00 0.01 0.01 0.00 0.00 0.00 0.00 0.00 0.00 0.01 0.01 0.00 0.00 0.00 0.00 0.00 0.01 0.01 0.00 0.00 0.00 0.00 0.00 0.00 0.00 0.00 0.00 0.00 0.00 0.00 0.00 0.00 0.00 0.00 0.00 0.02 0.06 0.06 0.05 0.02 0.01 0.00
0.02 0.01 0.00 0.01 0.01 0.02 0.00 0.00 0.00 0.00 0.00 0.00 0.00 0.00 0.00 0.00 0.00 0.00 0.00 0.00 0.00 0.00 0.02 0.00 0.00 0.00 0.00 0.00 0.00 0.00 0.00 0.00 0.00 0.00 0.00 0.00 0.00 0.00 0.00 0.01 0.03 0.04 0.03 0.01 0.00
0.02 0.01 0.01 0.01 0.03 0.02 0.00 0.00 0.00 0.00 0.00 0.00 0.00 0.00 0.00 0.00 0.00 0.00 0.00 0.00 0.00 0.00 0.01 0.00 0.00 0.00 0.00 0.00 0.00 0.00 0.00 0.00 0.00 0.00 0.00 0.00 0.00 0.00 0.00 0.00 0.00 0.01 0.01 0.00 0.00
0.02 0.01 0.01 0.02 0.04 0.01 0.01 0.00 0.00 0.00 0.01 0.00 0.00 0.00 0.00 0.00 0.00 0.00 0.00 0.00 0.00 0.00 0.00 0.01 0.01 0.00 0.00 0.00 0.00 0.00 0.00 0.00 0.00 0.00 0.00 0.00 0.00 0.00 0.00 0.01 0.01 0.01 0.00 0.00 0.00
0.03 0.01 0.02 0.04 0.02 0.00 0.00 0.00 0.00 0.00 0.01 0.00 0.00 0.00 0.00 0.00 0.00 0.00 0.00 0.00 0.00 0.00 0.00 0.02 0.00 0.00 0.00 0.00 0.00 0.01 0.00 0.00 0.00 0.00 0.02 0.00 0.00 0.01 0.00 0.00 0.00 0.01 0.01 0.01 0.00
0.04 0.02 0.03 0.06 0.02 0.00 0.00 0.00 0.00 0.03 0.02 0.00 0.00 0.00 0.00 0.00 0.00 0.00 0.00 0.00 0.00 0.00 0.00 0.01 0.00 0.00 0.00 0.00 0.00 0.01 0.00 0.00 0.00 0.00 0.01 0.02 0.00 0.02 0.00 0.00 0.00 0.00 0.00 0.00 0.00
0.05 0.04 0.07 0.05 0.02 0.00 0.01 0.02 0.11 0.12 0.05 0.00 0.00 0.00 0.00 0.00 0.00 0.00 0.00 0.00 0.00 0.00 0.00 0.01 0.01 0.01 0.01 0.00 0.00 0.00 0.00 0.00 0.00 0.00 0.00 0.01 0.02 0.01 0.01 0.01 0.03 0.02 0.00 0.00 0.00
0.09 0.07 0.11 0.05 0.02 0.01 0.04 0.16 0.24 0.09 0.00 0.00 0.00 0.00 0.00 0.00 0.00 0.00 0.00 0.01 0.06 0.10 0.02 0.00 0.00 0.01 0.01 0.00 0.00 0.00 0.02 0.05 0.13 0.05 0.02 0.05 0.05 0.03 0.00 0.00 0.01 0.01 0.00 0.00 0.01
0.13 0.15 0.12 0.05 0.00 0.07 0.20 0.58 0.38 0.01 0.00 0.01 0.00 0.00 0.04 0.03 0.03 0.03 0.06 0.09 0.09 0.16 0.09 0.02 0.01 0.01 0.01 0.00 0.04 0.02 0.02 0.16 0.25 0.09 0.07 0.06 0.02 0.01 0.01 0.00 0.00 0.00 0.00 0.00 0.00
0.31 0.22 0.20 0.05 0.05 0.19 0.47 0.70 0.19 0.03 0.10 0.10 0.01 0.02 0.05 0.08 0.09 0.09 0.18 0.34 0.42 0.41 0.43 0.16 0.08 0.01 0.00 0.01 0.04 0.12 0.08 0.08 0.22 0.07 0.06 0.01 0.00 0.00 0.00 0.00 0.00 0.00 0.03 0.10 0.03
0.42 0.40 0.13 0.03 0.18 0.49 0.74 0.22 0.01 0.02 0.01 0.01 0.03 0.03 0.02 0.05 0.11 0.24 0.46 0.46 0.26 0.33 0.43 0.33 0.29 0.05 0.05 0.03 0.02 0.11 0.10 0.15 0.14 0.12 0.08 0.00 0.01 0.02 0.02 0.01 0.01 0.00 0.03 0.26 0.19
0.77 0.81 0.14 0.11 0.66 1.05 0.64 0.06 0.00 0.00 0.00 0.00 0.00 0.02 0.01 0.08 0.12 0.34 0.63 0.58 0.16 0.12 0.25 0.40 0.34 0.16 0.27 0.26 0.09 0.15 0.26 0.19 0.21 0.10 0.14 0.09 0.02 0.02 0.03 0.02 0.02 0.01 0.02 0.10 0.28
1.44 1.12 0.39 0.40 0.82 0.53 0.18 0.03 0.01 0.00 0.00 0.00 0.00 0.02 0.08 0.11 0.15 0.27 0.52 0.40 0.15 0.17 0.17 0.35 0.39 0.12 0.10 0.33 0.14 0.05 0.15 0.15 0.32 0.19 0.04 0.04 0.02 0.01 0.01 0.02 0.05 0.21 0.13 0.17 0.34
1.80 0.97 1.05 0.92 0.89 0.28 0.09 0.04 0.01 0.00 0.00 0.01 0.02 0.07 0.07 0.06 0.13 0.06 0.15 0.04 0.02 0.13 0.36 0.39 0.41 0.25 0.19 0.37 0.25 0.16 0.03 0.02 0.04 0.08 0.04 0.07 0.04 0.04 0.05 0.09 0.19 0.57 0.52 0.41 0.28
2.09 1.39 1.71 1.42 0.46 0.28 0.30 0.21 0.11 0.01 0.01 0.04 0.04 0.06 0.05 0.03 0.08 0.08 0.06 0.07 0.01 0.02 0.10 0.40 0.57 0.55 0.52 0.33 0.36 0.34 0.19 0.08 0.23 0.26 0.03 0.03 0.03 0.12 0.14 0.25 0.45 1.19 0.94 0.99 0.56
2.72 0.86 0.59 0.89 0.65 0.22 0.18 0.20 0.15 0.13 0.06 0.05 0.04 0.06 0.11 0.07 0.03 0.03 0.10 0.10 0.08 0.03 0.01 0.19 0.44 0.35 0.17 0.03 0.02 0.18 0.24 0.29 0.51 0.20 0.18 0.08 0.05 0.11 0.25 0.30 0.43 0.69 0.99 0.95 0.69
2.38 0.43 0.26 0.17 0.16 0.28 0.30 0.18 0.15 0.11 0.13 0.12 0.03 0.01 0.02 0.05 0.06 0.05 0.08 0.27 0.21 0.22 0.17 0.17 0.23 0.11 0.09 0.03 0.02 0.13 0.47 0.49 0.44 0.25 0.12 0.06 0.06 0.08 0.17 0.23 0.46 0.63 0.58 1.45 0.86
1.75 0.28 0.47 0.30 0.21 0.34 0.26 0.14 0.14 0.10 0.07 0.05 0.05 0.05 0.05 0.06 0.07 0.11 0.09 0.14 0.27 0.43 0.43 0.29 0.24 0.16 0.08 0.03 0.09 0.55 0.45 0.56 1.18 0.42 0.23 0.40 0.30 0.27 0.23 0.35 0.58 1.19 2.12 1.53 0.80

GFSSW_prec_precacc_129.txt.gz
Total_Precipitation_Accumulation
0.02 0.01 0.01 0.01 0.00 0.00 0.00 0.00 0.00 0.00 0.00 0.00 0.00 0.00 0.00 0.00 0.00 0.00 0.00 0.00 0.00 0.00 0.00 0.00 0.00 0.00 0.00 0.00 0.00 0.00 0.00 0.00 0.01 0.02 0.18 0.25 0.17 0.26 0.11 0.01 0.04 0.21 1.07 0.42 0.22
0.02 0.02 0.02 0.02 0.01 0.00 0.00 0.00 0.00 0.00 0.00 0.00 0.00 0.00 0.00 0.00 0.00 0.00 0.00 0.00 0.00 0.00 0.00 0.00 0.00 0.00 0.00 0.00 0.00 0.00 0.00 0.00 0.03 0.08 0.25 0.33 0.04 0.18 0.07 0.03 0.19 0.63 1.02 0.34 0.21
0.01 0.02 0.02 0.01 0.00 0.00 0.00 0.00 0.00 0.00 0.00 0.00 0.00 0.00 0.00 0.00 0.00 0.00 0.00 0.00 0.00 0.00 0.00 0.00 0.00 0.00 0.00 0.00 0.00 0.00 0.00 0.00 0.00 0.06 0.10 0.29 0.01 0.05 0.03 0.06 0.42 0.46 0.60 0.36 0.34
0.00 0.00 0.01 0.01 0.00 0.00 0.00 0.00 0.00 0.00 0.00 0.00 0.00 0.00 0.00 0.00 0.00 0.00 0.00 0.00 0.00 0.00 0.00 0.00 0.00 0.00 0.00 0.00 0.00 0.00 0.00 0.00 0.00 0.00 0.00 0.00 0.07 0.15 0.09 0.10 0.21 0.45 0.47 0.33 0.41
0.00 0.00 0.00 0.00 0.00 0.00 0.00 0.00 0.00 0.00 0.00 0.00 0.00 0.00 0.00 0.00 0.00 0.00 0.00 0.00 0.00 0.00 0.00 0.00 0.00 0.00 0.00 0.00 0.00 0.00 0.00 0.00 0.00 0.01 0.00 0.01 0.09 0.11 0.01 0.05 0.22 0.39 0.26 0.25 0.29
0.01 0.00 0.00 0.00 0.00 0.00 0.00 0.00 0.00 0.00 0.00 0.00 0.00 0.00 0.00 0.00 0.00 0.00 0.00 0.00 0.00 0.00 0.00 0.00 0.00 0.00 0.00 0.00 0.00 0.00 0.00 0.00 0.00 0.00 0.00 0.00 0.18 0.02 0.11 0.13 0.30 0.94 0.29 0.16 0.19
0.01 0.00 0.00 0.01 0.01 0.01 0.01 0.00 0.00 0.00 0.00 0.00 0.00 0.00 0.00 0.00 0.00 0.00 0.00 0.00 0.00 0.00 0.00 0.00 0.00 0.00 0.00 0.00 0.00 0.00 0.00 0.00 0.04 0.02 0.00 0.02 0.06 0.02 0.16 0.27 0.40 0.34 0.16 0.04 0.04
0.01 0.01 0.00 0.00 0.01 0.00 0.00 0.00 0.00 0.00 0.00 0.00 0.00 0.00 0.00 0.00 0.00 0.00 0.00 0.00 0.00 0.00 0.00 0.00 0.00 0.00 0.00 0.00 0.00 0.00 0.00 0.00 0.05 0.01 0.00 0.01 0.13 0.25 0.31 0.13 0.33 0.47 0.10 0.03 0.00
0.01 0.00 0.00 0.00 0.00 0.01 0.00 0.00 0.00 0.00 0.00 0.00 0.00 0.00 0.00 0.00 0.00 0.00 0.00 0.00 0.00 0.00 0.00 0.00 0.00 0.00 0.00 0.01 0.00 0.00 0.00 0.00 0.00 0.00 0.00 0.00 0.00 0.03 0.15 0.27 0.39 0.29 0.04 0.00 0.00
0.01 0.00 0.00 0.00 0.01 0.01 0.00 0.00 0.00 0.00 0.00 0.00 0.01 0.01 0.00 0.00 0.00 0.00 0.00 0.01 0.01 0.00 0.00 0.00 0.00 0.00 0.00 0.00 0.00 0.00 0.00 0.00 0.00 0.00 0.00 0.00 0.00 0.00 0.02 0.06 0.06 0.05 0.02 0.01 0.00
0.02 0.01 0.00 0.01 0.01 0.02 0.00 0.00 0.00 0.00 0.00 0.00 0.00 0.00 0.00 0.00 0.00 0.00 0.00 0.00 0.00 0.00 0.02 0.00 0.00 0.00 0.00 0.00 0.00 0.00 0.00 0.00 0.00 0.00 0.00 0.00 0.00 0.00 0.00 0.01 0.03 0.04 0.03 0.01 0.00
0.02 0.01 0.01 0.01 0.03 0.02 0.00 0.00 0.00 0.00 0.00 0.00 0.00 0.00 0.00 0.00 0.00 0.00 0.00 0.00 0.00 0.00 0.01 0.00 0.00 0.00 0.00 0.00 0.00 0.00 0.00 0.00 0.00 0.00 0.00 0.00 0.00 0.00 0.00 0.00 0.00 0.01 0.01 0.00 0.00
0.03 0.01 0.01 0.02 0.04 0.01 0.01 0.00 0.00 0.00 0.01 0.00 0.00 0.00 0.00 0.00 0.00 0.00 0.00 0.00 0.00 0.00 0.00 0.01 0.01 0.00 0.00 0.00 0.00 0.00 0.00 0.00 0.00 0.00 0.00 0.00 0.00 0.00 0.00 0.01 0.01 0.01 0.00 0.00 0.00
0.03 0.01 0.02 0.04 0.02 0.00 0.00 0.00 0.00 0.00 0.01 0.00 0.00 0.00 0.00 0.00 0.00 0.00 0.00 0.00 0.00 0.00 0.00 0.02 0.00 0.00 0.00 0.00 0.00 0.01 0.00 0.00 0.00 0.00 0.02 0.00 0.00 0.01 0.00 0.00 0.00 0.01 0.01 0.01 0.00
0.04 0.02 0.03 0.06 0.02 0.00 0.00 0.00 0.00 0.03 0.03 0.00 0.00 0.00 0.00 0.00 0.00 0.00 0.00 0.00 0.00 0.00 0.00 0.01 0.00 0.00 0.00 0.00 0.00 0.01 0.00 0.00 0.00 0.00 0.01 0.02 0.00 0.02 0.00 0.00 0.00 0.00 0.00 0.00 0.00
0.06 0.04 0.07 0.05 0.02 0.00 0.01 0.02 0.11 0.13 0.06 0.00 0.00 0.00 0.00 0.00 0.00 0.00 0.00 0.00 0.00 0.00 0.00 0.01 0.01 0.01 0.01 0.00 0.00 0.00 0.00 0.00 0.00 0.00 0.00 0.01 0.02 0.01 0.01 0.01 0.03 0.02 0.00 0.00 0.00
0.09 0.07 0.11 0.05 0.02 0.01 0.04 0.16 0.24 0.09 0.00 0.00 0.00 0.00 0.00 0.00 0.00 0.00 0.00 0.01 0.06 0.10 0.02 0.00 0.00 0.01 0.01 0.00 0.00 0.00 0.02 0.06 0.13 0.05 0.02 0.05 0.05 0.03 0.00 0.00 0.01 0.01 0.00 0.00 0.01
0.14 0.15 0.12 0.05 0.00 0.07 0.20 0.58 0.38 0.01 0.00 0.01 0.00 0.00 0.04 0.03 0.03 0.03 0.06 0.09 0.09 0.16 0.09 0.02 0.01 0.01 0.01 0.00 0.04 0.02 0.03 0.23 0.35 0.09 0.07 0.06 0.02 0.01 0.01 0.01 0.02 0.01 0.01 0.00 0.00
0.31 0.22 0.20 0.05 0.05 0.19 0.47 0.70 0.19 0.03 0.10 0.10 0.01 0.02 0.05 0.08 0.09 0.09 0.18 0.34 0.42 0.41 0.43 0.16 0.08 0.01 0.00 0.01 0.04 0.12 0.08 0.08 0.30 0.08 0.08 0.01 0.00 0.00 0.01 0.03 0.06 0.05 0.04 0.10 0.07
0.42 0.40 0.13 0.03 0.18 0.49 0.74 0.23 0.02 0.02 0.01 0.01 0.03 0.03 0.02 0.05 0.11 0.24 0.46 0.46 0.26 0.33 0.43 0.33 0.29 0.05 0.05 0.03 0.02 0.11 0.10 0.16 0.17 0.16 0.11 0.00 0.01 0.02 0.02 0.03 0.02 0.01 0.04 0.31 0.33
0.77 0.81 0.14 0.11 0.66 1.05 0.64 0.06 0.00 0.00 0.00 0.00 0.00 0.02 0.01 0.08 0.12 0.34 0.63 0.58 0.16 0.12 0.25 0.40 0.34 0.16 0.27 0.26 0.09 0.15 0.26 0.20 0.24 0.11 0.20 0.13 0.02 0.02 0.05 0.07 0.03 0.08 0.13 0.17 0.64
1.44 1.12 0.39 0.40 0.82 0.53 0.18 0.03 0.01 0.00 0.00 0.00 0.00 0.02 0.08 0.11 0.15 0.27 0.52 0.40 0.15 0.17 0.17 0.35 0.39 0.12 0.10 0.33 0.14 0.05 0.15 0.15 0.44 0.25 0.08 0.10 0.03 0.01 0.06 0.08 0.07 0.28 0.39 0.32 0.57
1.81 0.97 1.05 0.92 0.89 0.28 0.09 0.04 0.01 0.00 0.00 0.01 0.02 0.07 0.07 0.06 0.13 0.06 0.15 0.04 0.02 0.13 0.36 0.39 0.41 0.25 0.19 0.37 0.25 0.16 0.03 0.02 0.12 0.17 0.14 0.17 0.04 0.04 0.06 0.11 0.20 0.67 0.76 0.67 0.59
2.09 1.39 1.71 1.43 0.46 0.28 0.30 0.21 0.11 0.01 0.01 0.04 0.04 0.06 0.05 0.03 0.08 0.08 0.06 0.07 0.01 0.02 0.10 0.40 0.57 0.55 0.52 0.33 0.36 0.34 0.19 0.09 0.33 0.43 0.11 0.08 0.09 0.13 0.14 0.25 0.46 1.26 1.27 1.21 0.81
2.72 0.86 0.60 0.89 0.65 0.22 0.18 0.20 0.15 0.13 0.06 0.05 0.04 0.06 0.11 0.07 0.03 0.03 0.10 0.10 0.08 0.03 0.01 0.19 0.44 0.35 0.17 0.03 0.02 0.18 0.26 0.30 0.57 0.31 0.30 0.14 0.08 0.12 0.26 0.35 0.46 0.74 1.14 1.12 1.13
2.38 0.43 0.26 0.17 0.16 0.28 0.30 0.18 0.15 0.11 0.13 0.12 0.03 0.01 0.02 0.05 0.06 0.05 0.08 0.27 0.21 0.22 0.17 0.17 0.23 0.11 0.09 0.03 0.02 0.15 0.50 0.49 0.46 0.32 0.15 0.07 0.06 0.12 0.27 0.44 0.50 0.70 0.74 1.61 1.09
1.75 0.28 0.47 0.30 0.21 0.34 0.26 0.14 0.14 0.10 0.07 0.05 0.05 0.05 0.05 0.06 0.07 0.11 0.09 0.14 0.27 0.43 0.43 0.29 0.24 0.16 0.08 0.03 0.09 0.58 0.46 0.56 1.20 0.51 0.35 0.55 0.44 0.45 0.66 0.70 0.64 1.23 2.16 1.59 0.92

GFSSW_prec_precacc_132.txt.gz
Total_Precipitation_Accumulation
0.02 0.01 0.01 0.01 0.00 0.00 0.00 0.00 0.00 0.00 0.00 0.00 0.00 0.00 0.00 0.00 0.00 0.00 0.00 0.00 0.00 0.00 0.00 0.00 0.00 0.00 0.00 0.00 0.00 0.00 0.00 0.00 0.01 0.02 0.18 0.25 0.17 0.26 0.11 0.01 0.04 0.21 1.07 0.42 0.22
0.02 0.02 0.02 0.02 0.01 0.00 0.00 0.00 0.00 0.00 0.00 0.00 0.00 0.00 0.00 0.00 0.00 0.00 0.00 0.00 0.00 0.00 0.00 0.00 0.00 0.00 0.00 0.00 0.00 0.00 0.00 0.00 0.03 0.08 0.25 0.33 0.04 0.18 0.07 0.03 0.19 0.63 1.02 0.34 0.21
0.01 0.02 0.02 0.01 0.00 0.00 0.00 0.00 0.00 0.00 0.00 0.00 0.00 0.00 0.00 0.00 0.00 0.00 0.00 0.00 0.00 0.00 0.00 0.00 0.00 0.00 0.00 0.00 0.00 0.00 0.00 0.00 0.00 0.06 0.10 0.29 0.01 0.05 0.03 0.06 0.42 0.46 0.60 0.36 0.34
0.00 0.00 0.01 0.01 0.00 0.00 0.00 0.00 0.00 0.00 0.00 0.00 0.00 0.00 0.00 0.00 0.00 0.00 0.00 0.00 0.00 0.00 0.00 0.00 0.00 0.00 0.00 0.00 0.00 0.00 0.00 0.00 0.00 0.00 0.00 0.00 0.07 0.15 0.09 0.10 0.21 0.45 0.47 0.33 0.41
0.00 0.00 0.00 0.00 0.00 0.00 0.00 0.00 0.00 0.00 0.00 0.00 0.00 0.00 0.00 0.00 0.00 0.00 0.00 0.00 0.00 0.00 0.00 0.00 0.00 0.00 0.00 0.00 0.00 0.00 0.00 0.00 0.00 0.01 0.00 0.01 0.09 0.11 0.01 0.05 0.22 0.39 0.26 0.25 0.29
0.01 0.00 0.00 0.00 0.00 0.00 0.00 0.00 0.00 0.00 0.00 0.00 0.00 0.00 0.00 0.00 0.00 0.00 0.00 0.00 0.00 0.00 0.00 0.00 0.00 0.00 0.00 0.00 0.00 0.00 0.00 0.00 0.00 0.00 0.00 0.00 0.18 0.02 0.11 0.13 0.30 0.94 0.29 0.16 0.19
0.01 0.00 0.00 0.01 0.01 0.01 0.01 0.00 0.00 0.00 0.00 0.00 0.00 0.00 0.00 0.00 0.00 0.00 0.00 0.00 0.00 0.00 0.00 0.00 0.00 0.00 0.00 0.00 0.00 0.00 0.00 0.00 0.04 0.02 0.00 0.02 0.06 0.02 0.16 0.27 0.40 0.34 0.16 0.04 0.04
0.01 0.01 0.00 0.00 0.01 0.00 0.00 0.00 0.00 0.00 0.00 0.00 0.00 0.00 0.00 0.00 0.00 0.00 0.00 0.00 0.00 0.00 0.00 0.00 0.00 0.00 0.00 0.00 0.00 0.00 0.00 0.00 0.05 0.01 0.00 0.01 0.13 0.25 0.31 0.13 0.33 0.47 0.10 0.03 0.00
0.01 0.00 0.00 0.00 0.00 0.01 0.00 0.00 0.00 0.00 0.00 0.00 0.00 0.00 0.00 0.00 0.00 0.00 0.00 0.00 0.00 0.00 0.00 0.00 0.00 0.00 0.00 0.01 0.00 0.00 0.00 0.00 0.00 0.00 0.00 0.00 0.00 0.03 0.15 0.27 0.39 0.29 0.04 0.00 0.00
0.01 0.00 0.00 0.00 0.01 0.01 0.00 0.00 0.00 0.00 0.00 0.00 0.01 0.01 0.00 0.00 0.00 0.00 0.00 0.01 0.01 0.00 0.00 0.00 0.00 0.00 0.00 0.00 0.00 0.00 0.00 0.00 0.00 0.00 0.00 0.00 0.00 0.00 0.02 0.06 0.06 0.05 0.02 0.01 0.00
0.02 0.01 0.00 0.01 0.01 0.02 0.00 0.00 0.00 0.00 0.00 0.00 0.00 0.00 0.00 0.00 0.00 0.00 0.00 0.00 0.00 0.00 0.02 0.00 0.00 0.00 0.00 0.00 0.00 0.00 0.00 0.00 0.00 0.00 0.00 0.00 0.00 0.00 0.00 0.01 0.03 0.04 0.03 0.01 0.00
0.02 0.01 0.01 0.01 0.03 0.02 0.00 0.00 0.00 0.00 0.00 0.00 0.00 0.00 0.00 0.00 0.00 0.00 0.00 0.00 0.00 0.00 0.01 0.00 0.00 0.00 0.00 0.00 0.00 0.00 0.00 0.00 0.00 0.00 0.00 0.00 0.00 0.00 0.00 0.00 0.00 0.01 0.01 0.00 0.00
0.03 0.01 0.01 0.02 0.04 0.01 0.01 0.00 0.00 0.00 0.01 0.00 0.00 0.00 0.00 0.00 0.00 0.00 0.00 0.00 0.00 0.00 0.00 0.01 0.01 0.00 0.00 0.00 0.00 0.00 0.00 0.00 0.00 0.00 0.00 0.00 0.00 0.00 0.00 0.01 0.01 0.01 0.00 0.00 0.00
0.04 0.02 0.02 0.04 0.02 0.00 0.00 0.00 0.00 0.00 0.01 0.00 0.00 0.00 0.00 0.00 0.00 0.00 0.00 0.00 0.00 0.00 0.00 0.02 0.00 0.00 0.00 0.00 0.00 0.01 0.00 0.00 0.00 0.00 0.02 0.00 0.00 0.01 0.00 0.00 0.00 0.01 0.01 0.01 0.00
0.07 0.03 0.03 0.06 0.02 0.00 0.00 0.00 0.00 0.03 0.03 0.00 0.00 0.00 0.00 0.00 0.00 0.00 0.00 0.00 0.00 0.00 0.00 0.01 0.00 0.00 0.00 0.00 0.00 0.01 0.00 0.00 0.00 0.00 0.01 0.02 0.00 0.02 0.00 0.00 0.00 0.00 0.01 0.00 0.00
0.15 0.11 0.10 0.06 0.02 0.00 0.01 0.02 0.11 0.13 0.06 0.00 0.00 0.00 0.00 0.00 0.00 0.00 0.00 0.00 0.00 0.00 0.00 0.01 0.01 0.01 0.01 0.00 0.00 0.00 0.00 0.00 0.00 0.00 0.00 0.01 0.02 0.01 0.01 0.01 0.04 0.08 0.04 0.01 0.00
0.18 0.17 0.19 0.06 0.03 0.01 0.04 0.16 0.24 0.09 0.00 0.00 0.00 0.00 0.00 0.00 0.00 0.00 0.00 0.01 0.06 0.10 0.02 0.00 0.00 0.01 0.01 0.00 0.00 0.00 0.02 0.06 0.13 0.05 0.02 0.05 0.05 0.03 0.00 0.01 0.09 0.11 0.02 0.02 0.05
0.28 0.22 0.15 0.05 0.00 0.07 0.20 0.58 0.38 0.01 0.00 0.01 0.00 0.00 0.04 0.03 0.03 0.03 0.06 0.09 0.09 0.16 0.09 0.02 0.01 0.01 0.01 0.00 0.04 0.02 0.03 0.24 0.36 0.09 0.07 0.06 0.02 0.01 0.01 0.04 0.08 0.11 0.08 0.11 0.15
0.44 0.30 0.27 0.06 0.05 0.19 0.47 0.71 0.19 0.03 0.10 0.10 0.01 0.02 0.05 0.08 0.09 0.09 0.18 0.34 0.42 0.41 0.43 0.16 0.08 0.01 0.00 0.01 0.04 0.12 0.08 0.08 0.31 0.08 0.09 0.01 0.00 0.00 0.01 0.03 0.06 0.09 0.11 0.22 0.20
0.56 0.46 0.19 0.08 0.19 0.49 0.74 0.23 0.02 0.02 0.01 0.01 0.04 0.03 0.02 0.05 0.11 0.24 0.46 0.46 0.26 0.33 0.43 0.33 0.29 0.05 0.05 0.03 0.02 0.11 0.10 0.17 0.19 0.17 0.12 0.00 0.01 0.02 0.03 0.03 0.02 0.02 0.10 0.45 0.38
0.88 0.97 0.20 0.11 0.66 1.05 0.64 0.06 0.00 0.00 0.00 0.00 0.00 0.02 0.01 0.08 0.12 0.34 0.63 0.58 0.16 0.12 0.25 0.40 0.34 0.16 0.27 0.26 0.09 0.15 0.26 0.20 0.25 0.12 0.25 0.16 0.02 0.03 0.07 0.08 0.04 0.10 0.27 0.33 0.69
1.56 1.22 0.45 0.40 0.82 0.53 0.18 0.03 0.01 0.00 0.00 0.00 0.00 0.02 0.08 0.11 0.15 0.27 0.52 0.40 0.15 0.17 0.17 0.35 0.39 0.12 0.10 0.33 0.14 0.05 0.15 0.15 0.52 0.30 0.12 0.17 0.05 0.01 0.07 0.09 0.09 0.35 0.55 0.52 0.65
1.89 1.04 1.08 0.93 0.89 0.28 0.09 0.04 0.01 0.00 0.00 0.01 0.02 0.07 0.07 0.06 0.13 0.06 0.15 0.04 0.02 0.13 0.36 0.39 0.41 0.25 0.19 0.37 0.25 0.16 0.03 0.03 0.16 0.23 0.17 0.23 0.05 0.04 0.06 0.12 0.24 0.72 0.84 0.77 0.79
2.12 1.45 1.74 1.44 0.46 0.28 0.31 0.21 0.11 0.01 0.01 0.04 0.04 0.06 0.05 0.03 0.08 0.08 0.06 0.07 0.01 0.02 0.10 0.40 0.57 0.55 0.52 0.33 0.36 0.34 0.19 0.09 0.36 0.49 0.14 0.09 0.10 0.13 0.15 0.28 0.51 1.29 1.33 1.28 1.02
2.74 0.87 0.60 0.89 0.65 0.23 0.19 0.21 0.16 0.14 0.06 0.05 0.04 0.06 0.11 0.07 0.03 0.03 0.10 0.10 0.08 0.03 0.01 0.19 0.44 0.35 0.17 0.03 0.02 0.18 0.26 0.30 0.57 0.35 0.36 0.17 0.09 0.16 0.34 0.51 0.56 0.78 1.17 1.16 1.27
2.38 0.43 0.26 0.17 0.17 0.28 0.30 0.18 0.15 0.12 0.14 0.12 0.03 0.01 0.02 0.06 0.06 0.05 0.08 0.27 0.21 0.22 0.17 0.17 0.23 0.11 0.09 0.03 0.02 0.15 0.50 0.49 0.46 0.33 0.15 0.07 0.07 0.19 0.41 0.60 0.54 0.74 0.77 1.63 1.22
1.75 0.28 0.47 0.30 0.21 0.34 0.26 0.14 0.14 0.10 0.07 0.05 0.05 0.05 0.05 0.06 0.07 0.11 0.09 0.14 0.27 0.43 0.43 0.29 0.24 0.16 0.08 0.03 0.09 0.59 0.46 0.56 1.20 0.52 0.38 0.60 0.55 0.52 0.71 0.77 0.71 1.29 2.19 1.61 0.96

GFSSW_prec_precacc_135.txt.gz
Total_Precipitation_Accumulation
0.02 0.01 0.01 0.01 0.00 0.00 0.00 0.00 0.00 0.00 0.00 0.00 0.00 0.00 0.00 0.00 0.00 0.00 0.00 0.00 0.00 0.00 0.00 0.00 0.00 0.00 0.00 0.00 0.00 0.00 0.00 0.00 0.01 0.02 0.18 0.25 0.17 0.26 0.11 0.01 0.04 0.21 1.07 0.42 0.22
0.02 0.02 0.02 0.02 0.01 0.00 0.00 0.00 0.00 0.00 0.00 0.00 0.00 0.00 0.00 0.00 0.00 0.00 0.00 0.00 0.00 0.00 0.00 0.00 0.00 0.00 0.00 0.00 0.00 0.00 0.00 0.00 0.03 0.08 0.25 0.33 0.04 0.18 0.07 0.03 0.19 0.63 1.02 0.34 0.21
0.01 0.02 0.02 0.01 0.00 0.00 0.00 0.00 0.00 0.00 0.00 0.00 0.00 0.00 0.00 0.00 0.00 0.00 0.00 0.00 0.00 0.00 0.00 0.00 0.00 0.00 0.00 0.00 0.00 0.00 0.00 0.00 0.00 0.06 0.10 0.29 0.01 0.05 0.03 0.06 0.42 0.46 0.60 0.36 0.34
0.00 0.00 0.01 0.01 0.00 0.00 0.00 0.00 0.00 0.00 0.00 0.00 0.00 0.00 0.00 0.00 0.00 0.00 0.00 0.00 0.00 0.00 0.00 0.00 0.00 0.00 0.00 0.00 0.00 0.00 0.00 0.00 0.00 0.00 0.00 0.00 0.07 0.15 0.09 0.10 0.21 0.45 0.47 0.33 0.41
0.00 0.00 0.00 0.00 0.00 0.00 0.00 0.00 0.00 0.00 0.00 0.00 0.00 0.00 0.00 0.00 0.00 0.00 0.00 0.00 0.00 0.00 0.00 0.00 0.00 0.00 0.00 0.00 0.00 0.00 0.00 0.00 0.00 0.01 0.00 0.01 0.09 0.11 0.01 0.05 0.22 0.39 0.26 0.25 0.29
0.01 0.00 0.00 0.00 0.00 0.00 0.00 0.00 0.00 0.00 0.00 0.00 0.00 0.00 0.00 0.00 0.00 0.00 0.00 0.00 0.00 0.00 0.00 0.00 0.00 0.00 0.00 0.00 0.00 0.00 0.00 0.00 0.00 0.00 0.00 0.00 0.18 0.02 0.11 0.13 0.30 0.94 0.29 0.16 0.19
0.01 0.00 0.00 0.01 0.01 0.01 0.01 0.00 0.00 0.00 0.00 0.00 0.00 0.00 0.00 0.00 0.00 0.00 0.00 0.00 0.00 0.00 0.00 0.00 0.00 0.00 0.00 0.00 0.00 0.00 0.00 0.00 0.04 0.02 0.00 0.02 0.06 0.02 0.16 0.27 0.40 0.34 0.16 0.04 0.04
0.01 0.01 0.00 0.00 0.01 0.00 0.00 0.00 0.00 0.00 0.00 0.00 0.00 0.00 0.00 0.00 0.00 0.00 0.00 0.00 0.00 0.00 0.00 0.00 0.00 0.00 0.00 0.00 0.00 0.00 0.00 0.00 0.05 0.01 0.00 0.01 0.13 0.25 0.31 0.13 0.33 0.47 0.10 0.03 0.00
0.01 0.00 0.00 0.00 0.00 0.01 0.00 0.00 0.00 0.00 0.00 0.00 0.00 0.00 0.00 0.00 0.00 0.00 0.00 0.00 0.00 0.00 0.00 0.00 0.00 0.00 0.00 0.01 0.00 0.00 0.00 0.00 0.00 0.00 0.00 0.00 0.00 0.03 0.15 0.27 0.39 0.29 0.04 0.00 0.00
0.01 0.00 0.00 0.00 0.01 0.01 0.00 0.00 0.00 0.00 0.00 0.00 0.01 0.01 0.00 0.00 0.00 0.00 0.00 0.01 0.01 0.00 0.00 0.00 0.00 0.00 0.00 0.00 0.00 0.00 0.00 0.00 0.00 0.00 0.00 0.00 0.00 0.00 0.02 0.06 0.06 0.05 0.02 0.01 0.00
0.03 0.01 0.00 0.01 0.01 0.02 0.00 0.00 0.00 0.00 0.00 0.00 0.00 0.00 0.00 0.00 0.00 0.00 0.00 0.00 0.00 0.00 0.02 0.00 0.00 0.00 0.00 0.00 0.00 0.00 0.00 0.00 0.00 0.00 0.00 0.00 0.00 0.00 0.00 0.01 0.03 0.04 0.03 0.01 0.00
0.09 0.03 0.01 0.01 0.03 0.02 0.00 0.00 0.00 0.00 0.00 0.00 0.00 0.00 0.00 0.00 0.00 0.00 0.00 0.00 0.00 0.00 0.01 0.00 0.00 0.00 0.00 0.00 0.00 0.00 0.00 0.00 0.00 0.00 0.00 0.00 0.00 0.00 0.00 0.00 0.00 0.01 0.01 0.00 0.00
0.12 0.09 0.04 0.02 0.04 0.01 0.01 0.00 0.00 0.00 0.01 0.00 0.00 0.00 0.00 0.00 0.00 0.00 0.00 0.00 0.00 0.00 0.00 0.01 0.01 0.00 0.00 0.00 0.00 0.00 0.00 0.00 0.00 0.00 0.00 0.00 0.00 0.00 0.00 0.01 0.01 0.01 0.00 0.00 0.00
0.15 0.11 0.10 0.07 0.02 0.00 0.00 0.00 0.00 0.00 0.01 0.00 0.00 0.00 0.00 0.00 0.00 0.00 0.00 0.00 0.00 0.00 0.00 0.02 0.00 0.00 0.00 0.00 0.00 0.01 0.00 0.00 0.00 0.00 0.02 0.00 0.00 0.01 0.00 0.00 0.00 0.01 0.01 0.01 0.00
0.20 0.18 0.17 0.15 0.03 0.00 0.00 0.00 0.00 0.03 0.03 0.00 0.00 0.00 0.00 0.00 0.00 0.00 0.00 0.00 0.00 0.00 0.00 0.01 0.00 0.00 0.00 0.00 0.00 0.01 0.00 0.00 0.00 0.00 0.01 0.02 0.00 0.02 0.00 0.00 0.00 0.00 0.01 0.01 0.00
0.28 0.28 0.32 0.22 0.09 0.01 0.01 0.02 0.11 0.13 0.06 0.00 0.00 0.00 0.00 0.00 0.00 0.00 0.00 0.00 0.00 0.00 0.00 0.01 0.01 0.01 0.01 0.00 0.00 0.00 0.00 0.00 0.00 0.00 0.00 0.01 0.02 0.01 0.01 0.01 0.04 0.08 0.05 0.02 0.04
0.24 0.30 0.39 0.28 0.22 0.07 0.05 0.16 0.25 0.09 0.00 0.00 0.00 0.00 0.00 0.00 0.00 0.00 0.00 0.01 0.06 0.10 0.02 0.00 0.00 0.01 0.01 0.00 0.00 0.00 0.02 0.06 0.13 0.05 0.02 0.05 0.05 0.03 0.00 0.01 0.09 0.12 0.03 0.05 0.18
0.41 0.33 0.31 0.21 0.11 0.15 0.29 0.69 0.44 0.01 0.00 0.01 0.00 0.00 0.04 0.03 0.03 0.03 0.06 0.09 0.09 0.16 0.09 0.02 0.01 0.01 0.01 0.00 0.04 0.02 0.03 0.24 0.36 0.09 0.07 0.06 0.02 0.01 0.01 0.04 0.09 0.13 0.09 0.16 0.29
0.63 0.48 0.42 0.17 0.13 0.27 0.55 0.83 0.24 0.03 0.10 0.10 0.01 0.02 0.05 0.08 0.09 0.09 0.18 0.34 0.42 0.41 0.43 0.16 0.08 0.01 0.00 0.01 0.04 0.12 0.08 0.08 0.31 0.08 0.09 0.01 0.00 0.00 0.01 0.03 0.06 0.09 0.12 0.27 0.29
0.68 0.65 0.39 0.26 0.30 0.58 0.87 0.32 0.02 0.02 0.01 0.01 0.04 0.03 0.02 0.05 0.11 0.24 0.46 0.46 0.26 0.33 0.43 0.33 0.29 0.05 0.05 0.03 0.02 0.11 0.10 0.17 0.19 0.17 0.12 0.00 0.01 0.02 0.03 0.03 0.02 0.07 0.19 0.55 0.46
0.94 1.20 0.54 0.37 0.87 1.27 0.76 0.09 0.01 0.00 0.00 0.00 0.00 0.02 0.01 0.08 0.12 0.34 0.63 0.58 0.16 0.12 0.25 0.40 0.34 0.16 0.27 0.26 0.09 0.15 0.26 0.20 0.25 0.12 0.26 0.17 0.02 0.03 0.07 0.08 0.07 0.24 0.41 0.49 0.79
1.67 1.41 0.71 0.72 1.12 0.74 0.25 0.04 0.02 0.00 0.00 0.00 0.00 0.02 0.08 0.11 0.15 0.27 0.52 0.40 0.15 0.17 0.17 0.35 0.39 0.12 0.10 0.33 0.14 0.05 0.15 0.15 0.52 0.31 0.13 0.19 0.06 0.01 0.07 0.09 0.13 0.45 0.67 0.68 0.80
2.09 1.31 1.31 1.15 1.10 0.40 0.11 0.04 0.01 0.01 0.00 0.01 0.02 0.07 0.07 0.06 0.13 0.06 0.15 0.04 0.02 0.13 0.36 0.39 0.41 0.25 0.19 0.37 0.25 0.16 0.03 0.03 0.16 0.23 0.18 0.24 0.05 0.04 0.06 0.12 0.26 0.77 0.94 0.90 0.95
2.33 1.86 2.18 1.68 0.53 0.31 0.32 0.23 0.12 0.01 0.01 0.04 0.04 0.06 0.05 0.03 0.08 0.08 0.06 0.07 0.01 0.02 0.10 0.40 0.57 0.55 0.52 0.33 0.36 0.34 0.19 0.09 0.36 0.50 0.15 0.09 0.10 0.13 0.15 0.31 0.56 1.32 1.39 1.37 1.13
2.90 1.04 0.76 1.02 0.68 0.23 0.20 0.24 0.17 0.14 0.06 0.05 0.04 0.06 0.11 0.07 0.04 0.04 0.11 0.11 0.08 0.03 0.01 0.19 0.44 0.35 0.17 0.03 0.02 0.18 0.26 0.30 0.57 0.35 0.38 0.17 0.09 0.16 0.38 0.60 0.68 0.86 1.19 1.17 1.29
2.50 0.52 0.29 0.18 0.18 0.30 0.31 0.19 0.16 0.12 0.14 0.13 0.04 0.01 0.02 0.06 0.07 0.05 0.09 0.28 0.21 0.22 0.17 0.17 0.23 0.11 0.09 0.03 0.02 0.15 0.50 0.49 0.46 0.33 0.15 0.07 0.07 0.20 0.44 0.66 0.59 0.75 0.77 1.63 1.23
1.79 0.29 0.49 0.32 0.24 0.38 0.28 0.15 0.14 0.10 0.07 0.05 0.06 0.06 0.06 0.06 0.07 0.12 0.09 0.14 0.27 0.43 0.43 0.29 0.24 0.16 0.08 0.03 0.09 0.59 0.46 0.56 1.20 0.52 0.38 0.61 0.56 0.53 0.72 0.78 0.74 1.31 2.20 1.61 0.96

GFSSW_prec_precacc_138.txt.gz
Total_Precipitation_Accumulation
0.02 0.01 0.01 0.01 0.00 0.00 0.00 0.00 0.00 0.00 0.00 0.00 0.00 0.00 0.00 0.00 0.00 0.00 0.00 0.00 0.00 0.00 0.00 0.00 0.00 0.00 0.00 0.00 0.00 0.00 0.00 0.00 0.01 0.02 0.18 0.25 0.17 0.26 0.11 0.01 0.04 0.21 1.07 0.42 0.22
0.02 0.02 0.02 0.02 0.01 0.00 0.00 0.00 0.00 0.00 0.00 0.00 0.00 0.00 0.00 0.00 0.00 0.00 0.00 0.00 0.00 0.00 0.00 0.00 0.00 0.00 0.00 0.00 0.00 0.00 0.00 0.00 0.03 0.08 0.25 0.33 0.04 0.18 0.07 0.03 0.19 0.63 1.02 0.34 0.21
0.01 0.02 0.02 0.01 0.00 0.00 0.00 0.00 0.00 0.00 0.00 0.00 0.00 0.00 0.00 0.00 0.00 0.00 0.00 0.00 0.00 0.00 0.00 0.00 0.00 0.00 0.00 0.00 0.00 0.00 0.00 0.00 0.00 0.06 0.10 0.29 0.01 0.05 0.03 0.06 0.42 0.46 0.60 0.36 0.34
0.00 0.00 0.01 0.01 0.00 0.00 0.00 0.00 0.00 0.00 0.00 0.00 0.00 0.00 0.00 0.00 0.00 0.00 0.00 0.00 0.00 0.00 0.00 0.00 0.00 0.00 0.00 0.00 0.00 0.00 0.00 0.00 0.00 0.00 0.00 0.00 0.07 0.15 0.09 0.10 0.21 0.45 0.47 0.33 0.41
0.00 0.00 0.00 0.00 0.00 0.00 0.00 0.00 0.00 0.00 0.00 0.00 0.00 0.00 0.00 0.00 0.00 0.00 0.00 0.00 0.00 0.00 0.00 0.00 0.00 0.00 0.00 0.00 0.00 0.00 0.00 0.00 0.00 0.01 0.00 0.01 0.09 0.11 0.01 0.05 0.22 0.39 0.26 0.25 0.29
0.01 0.00 0.00 0.00 0.00 0.00 0.00 0.00 0.00 0.00 0.00 0.00 0.00 0.00 0.00 0.00 0.00 0.00 0.00 0.00 0.00 0.00 0.00 0.00 0.00 0.00 0.00 0.00 0.00 0.00 0.00 0.00 0.00 0.00 0.00 0.00 0.18 0.02 0.11 0.13 0.30 0.94 0.29 0.16 0.19
0.01 0.00 0.00 0.01 0.01 0.01 0.01 0.00 0.00 0.00 0.00 0.00 0.00 0.00 0.00 0.00 0.00 0.00 0.00 0.00 0.00 0.00 0.00 0.00 0.00 0.00 0.00 0.00 0.00 0.00 0.00 0.00 0.04 0.02 0.00 0.02 0.06 0.02 0.16 0.27 0.40 0.34 0.16 0.04 0.04
0.02 0.01 0.00 0.00 0.01 0.00 0.00 0.00 0.00 0.00 0.00 0.00 0.00 0.00 0.00 0.00 0.00 0.00 0.00 0.00 0.00 0.00 0.00 0.00 0.00 0.00 0.00 0.00 0.00 0.00 0.00 0.00 0.05 0.01 0.00 0.01 0.13 0.25 0.31 0.13 0.33 0.47 0.10 0.03 0.00
0.03 0.02 0.00 0.00 0.00 0.01 0.00 0.00 0.00 0.00 0.00 0.00 0.00 0.00 0.00 0.00 0.00 0.00 0.00 0.00 0.00 0.00 0.00 0.00 0.00 0.00 0.00 0.01 0.00 0.00 0.00 0.00 0.00 0.00 0.00 0.00 0.00 0.03 0.15 0.27 0.39 0.29 0.04 0.00 0.00
0.04 0.03 0.01 0.00 0.01 0.01 0.00 0.00 0.00 0.00 0.00 0.00 0.01 0.01 0.00 0.00 0.00 0.00 0.00 0.01 0.01 0.00 0.00 0.00 0.00 0.00 0.00 0.00 0.00 0.00 0.00 0.00 0.00 0.00 0.00 0.00 0.00 0.00 0.02 0.06 0.06 0.05 0.02 0.01 0.00
0.09 0.05 0.03 0.03 0.02 0.02 0.00 0.00 0.00 0.00 0.00 0.00 0.00 0.00 0.00 0.00 0.00 0.00 0.00 0.00 0.00 0.00 0.02 0.00 0.00 0.00 0.00 0.00 0.00 0.00 0.00 0.00 0.00 0.00 0.00 0.00 0.00 0.00 0.00 0.01 0.03 0.04 0.03 0.01 0.00
0.15 0.12 0.09 0.11 0.12 0.03 0.00 0.00 0.00 0.00 0.00 0.00 0.00 0.00 0.00 0.00 0.00 0.00 0.00 0.00 0.00 0.00 0.01 0.00 0.00 0.00 0.00 0.00 0.00 0.00 0.00 0.00 0.00 0.00 0.00 0.00 0.00 0.00 0.00 0.00 0.00 0.01 0.01 0.00 0.00
0.17 0.19 0.21 0.25 0.21 0.04 0.01 0.00 0.00 0.00 0.01 0.00 0.00 0.00 0.00 0.00 0.00 0.00 0.00 0.00 0.00 0.00 0.00 0.01 0.01 0.00 0.00 0.00 0.00 0.00 0.00 0.00 0.00 0.00 0.00 0.00 0.00 0.00 0.00 0.01 0.01 0.01 0.00 0.00 0.00
0.17 0.15 0.25 0.41 0.30 0.14 0.06 0.00 0.00 0.00 0.01 0.00 0.00 0.00 0.00 0.00 0.00 0.00 0.00 0.00 0.00 0.00 0.00 0.02 0.00 0.00 0.00 0.00 0.00 0.01 0.00 0.00 0.00 0.00 0.02 0.00 0.00 0.01 0.00 0.00 0.00 0.01 0.01 0.01 0.00
0.26 0.26 0.26 0.23 0.08 0.04 0.05 0.03 0.01 0.04 0.05 0.00 0.00 0.00 0.00 0.00 0.00 0.00 0.00 0.00 0.00 0.00 0.00 0.01 0.00 0.00 0.00 0.00 0.00 0.01 0.00 0.00 0.00 0.00 0.01 0.02 0.00 0.02 0.00 0.00 0.00 0.00 0.01 0.01 0.01
0.34 0.38 0.39 0.37 0.21 0.05 0.03 0.07 0.20 0.21 0.09 0.00 0.00 0.00 0.00 0.00 0.00 0.00 0.00 0.00 0.00 0.00 0.00 0.01 0.01 0.01 0.01 0.00 0.00 0.00 0.00 0.00 0.00 0.00 0.00 0.01 0.02 0.01 0.01 0.01 0.04 0.08 0.05 0.02 0.04
0.33 0.40 0.42 0.30 0.31 0.21 0.20 0.33 0.53 0.30 0.02 0.00 0.00 0.00 0.00 0.00 0.00 0.00 0.00 0.01 0.06 0.10 0.02 0.00 0.00 0.01 0.01 0.00 0.00 0.00 0.02 0.06 0.13 0.05 0.02 0.05 0.05 0.03 0.00 0.01 0.09 0.12 0.03 0.05 0.19
0.48 0.41 0.34 0.24 0.19 0.31 0.55 1.06 0.83 0.13 0.01 0.01 0.00 0.00 0.04 0.03 0.03 0.03 0.06 0.09 0.09 0.16 0.09 0.02 0.01 0.01 0.01 0.00 0.04 0.02 0.03 0.24 0.36 0.09 0.07 0.06 0.02 0.01 0.01 0.04 0.09 0.13 0.09 0.16 0.30
0.74 0.58 0.48 0.24 0.22 0.41 0.86 1.26 0.45 0.09 0.11 0.10 0.01 0.02 0.05 0.08 0.09 0.09 0.18 0.34 0.42 0.41 0.43 0.16 0.08 0.01 0.00 0.01 0.04 0.12 0.08 0.08 0.31 0.08 0.09 0.01 0.00 0.00 0.01 0.03 0.06 0.09 0.13 0.28 0.31
0.73 0.71 0.43 0.33 0.45 0.77 1.18 0.61 0.10 0.03 0.02 0.02 0.05 0.04 0.02 0.05 0.11 0.24 0.46 0.46 0.26 0.33 0.43 0.33 0.29 0.05 0.05 0.03 0.02 0.11 0.10 0.17 0.19 0.17 0.12 0.00 0.01 0.02 0.03 0.03 0.02 0.08 0.21 0.56 0.46
0.97 1.26 0.61 0.44 1.07 1.69 1.09 0.22 0.04 0.00 0.01 0.01 0.02 0.02 0.01 0.08 0.12 0.34 0.63 0.58 0.16 0.12 0.25 0.40 0.34 0.16 0.27 0.26 0.09 0.15 0.26 0.20 0.25 0.12 0.26 0.17 0.02 0.03 0.07 0.08 0.08 0.26 0.43 0.52 0.81
1.72 1.47 0.80 0.83 1.34 1.03 0.43 0.11 0.04 0.01 0.00 0.00 0.01 0.03 0.08 0.11 0.15 0.27 0.52 0.40 0.15 0.17 0.17 0.35 0.39 0.12 0.10 0.33 0.14 0.05 0.15 0.15 0.52 0.31 0.13 0.19 0.07 0.01 0.07 0.09 0.14 0.46 0.68 0.70 0.83
2.14 1.42 1.49 1.24 1.22 0.53 0.17 0.06 0.03 0.03 0.01 0.02 0.02 0.07 0.07 0.06 0.13 0.06 0.15 0.04 0.02 0.13 0.36 0.39 0.41 0.25 0.19 0.37 0.25 0.16 0.03 0.03 0.16 0.24 0.18 0.25 0.06 0.04 0.06 0.12 0.26 0.77 0.94 0.93 0.98
2.39 2.05 2.57 2.02 0.64 0.33 0.36 0.29 0.15 0.03 0.02 0.05 0.04 0.06 0.05 0.03 0.08 0.08 0.06 0.07 0.01 0.02 0.10 0.40 0.58 0.55 0.52 0.33 0.36 0.34 0.19 0.09 0.36 0.50 0.15 0.09 0.10 0.13 0.15 0.31 0.56 1.32 1.40 1.39 1.15
2.92 1.08 0.88 1.16 0.75 0.25 0.22 0.27 0.21 0.18 0.09 0.06 0.05 0.06 0.12 0.07 0.04 0.04 0.11 0.11 0.08 0.03 0.01 0.20 0.45 0.36 0.17 0.03 0.02 0.18 0.26 0.30 0.57 0.35 0.38 0.17 0.09 0.16 0.38 0.60 0.68 0.86 1.19 1.17 1.30
2.53 0.54 0.29 0.18 0.18 0.31 0.33 0.24 0.20 0.15 0.17 0.15 0.05 0.01 0.02 0.06 0.07 0.05 0.09 0.28 0.21 0.22 0.17 0.17 0.23 0.11 0.09 0.03 0.02 0.15 0.50 0.49 0.46 0.33 0.15 0.07 0.07 0.20 0.45 0.66 0.60 0.75 0.77 1.63 1.23
1.80 0.29 0.50 0.36 0.28 0.42 0.32 0.16 0.15 0.12 0.09 0.06 0.06 0.07 0.06 0.06 0.07 0.12 0.09 0.14 0.27 0.44 0.44 0.29 0.24 0.16 0.08 0.03 0.09 0.59 0.46 0.56 1.20 0.52 0.38 0.61 0.56 0.53 0.72 0.78 0.74 1.31 2.20 1.61 0.96

GFSSW_prec_precacc_141.txt.gz
Total_Precipitation_Accumulation
0.02 0.01 0.01 0.01 0.00 0.00 0.00 0.00 0.00 0.00 0.00 0.00 0.00 0.00 0.00 0.00 0.00 0.00 0.00 0.00 0.00 0.00 0.00 0.00 0.00 0.00 0.00 0.00 0.00 0.00 0.00 0.00 0.01 0.02 0.18 0.25 0.17 0.26 0.11 0.01 0.04 0.21 1.07 0.42 0.22
0.02 0.02 0.02 0.02 0.01 0.00 0.00 0.00 0.00 0.00 0.00 0.00 0.00 0.00 0.00 0.00 0.00 0.00 0.00 0.00 0.00 0.00 0.00 0.00 0.00 0.00 0.00 0.00 0.00 0.00 0.00 0.00 0.03 0.08 0.25 0.33 0.04 0.18 0.07 0.03 0.19 0.63 1.02 0.34 0.21
0.01 0.02 0.02 0.01 0.00 0.00 0.00 0.00 0.00 0.00 0.00 0.00 0.00 0.00 0.00 0.00 0.00 0.00 0.00 0.00 0.00 0.00 0.00 0.00 0.00 0.00 0.00 0.00 0.00 0.00 0.00 0.00 0.00 0.06 0.10 0.29 0.01 0.05 0.03 0.06 0.42 0.46 0.60 0.36 0.34
0.00 0.00 0.01 0.01 0.00 0.00 0.00 0.00 0.00 0.00 0.00 0.00 0.00 0.00 0.00 0.00 0.00 0.00 0.00 0.00 0.00 0.00 0.00 0.00 0.00 0.00 0.00 0.00 0.00 0.00 0.00 0.00 0.00 0.00 0.00 0.00 0.07 0.15 0.09 0.10 0.21 0.45 0.47 0.33 0.41
0.00 0.00 0.00 0.00 0.00 0.00 0.00 0.00 0.00 0.00 0.00 0.00 0.00 0.00 0.00 0.00 0.00 0.00 0.00 0.00 0.00 0.00 0.00 0.00 0.00 0.00 0.00 0.00 0.00 0.00 0.00 0.00 0.00 0.01 0.00 0.01 0.09 0.11 0.01 0.05 0.22 0.39 0.26 0.25 0.29
0.01 0.00 0.00 0.00 0.00 0.00 0.00 0.00 0.00 0.00 0.00 0.00 0.00 0.00 0.00 0.00 0.00 0.00 0.00 0.00 0.00 0.00 0.00 0.00 0.00 0.00 0.00 0.00 0.00 0.00 0.00 0.00 0.00 0.00 0.00 0.00 0.18 0.02 0.11 0.13 0.30 0.94 0.29 0.16 0.19
0.02 0.00 0.00 0.01 0.01 0.01 0.01 0.00 0.00 0.00 0.00 0.00 0.00 0.00 0.00 0.00 0.00 0.00 0.00 0.00 0.00 0.00 0.00 0.00 0.00 0.00 0.00 0.00 0.00 0.00 0.00 0.00 0.04 0.02 0.00 0.02 0.06 0.02 0.16 0.27 0.40 0.34 0.16 0.04 0.04
0.04 0.03 0.02 0.01 0.01 0.00 0.00 0.00 0.00 0.00 0.00 0.00 0.00 0.00 0.00 0.00 0.00 0.00 0.00 0.00 0.00 0.00 0.00 0.00 0.00 0.00 0.00 0.00 0.00 0.00 0.00 0.00 0.05 0.01 0.00 0.01 0.13 0.25 0.31 0.13 0.33 0.47 0.10 0.03 0.00
0.11 0.07 0.05 0.04 0.01 0.01 0.00 0.00 0.00 0.00 0.00 0.00 0.00 0.00 0.00 0.00 0.00 0.00 0.00 0.00 0.00 0.00 0.00 0.00 0.00 0.00 0.00 0.01 0.00 0.00 0.00 0.00 0.00 0.00 0.00 0.00 0.00 0.03 0.15 0.27 0.39 0.29 0.04 0.00 0.00
0.06 0.06 0.05 0.09 0.09 0.05 0.00 0.00 0.00 0.00 0.00 0.00 0.01 0.01 0.00 0.00 0.00 0.00 0.00 0.01 0.01 0.00 0.00 0.00 0.00 0.00 0.00 0.00 0.00 0.00 0.00 0.00 0.00 0.00 0.00 0.00 0.00 0.00 0.02 0.06 0.06 0.05 0.02 0.01 0.00
0.10 0.06 0.04 0.06 0.11 0.08 0.02 0.00 0.00 0.00 0.00 0.00 0.00 0.00 0.00 0.00 0.00 0.00 0.00 0.00 0.00 0.00 0.02 0.00 0.00 0.00 0.00 0.00 0.00 0.00 0.00 0.00 0.00 0.00 0.00 0.00 0.00 0.00 0.00 0.01 0.03 0.04 0.03 0.01 0.00
0.16 0.13 0.10 0.16 0.23 0.12 0.02 0.00 0.00 0.00 0.00 0.00 0.00 0.00 0.00 0.00 0.00 0.00 0.00 0.00 0.00 0.00 0.01 0.00 0.00 0.00 0.00 0.00 0.00 0.00 0.00 0.00 0.00 0.00 0.00 0.00 0.00 0.00 0.00 0.00 0.00 0.01 0.01 0.00 0.00
0.17 0.20 0.23 0.31 0.26 0.09 0.02 0.01 0.01 0.00 0.01 0.00 0.00 0.00 0.00 0.00 0.00 0.00 0.00 0.00 0.00 0.00 0.00 0.01 0.01 0.00 0.00 0.00 0.00 0.00 0.00 0.00 0.00 0.00 0.00 0.00 0.00 0.00 0.00 0.01 0.01 0.01 0.00 0.00 0.00
0.18 0.17 0.31 0.46 0.34 0.15 0.10 0.03 0.04 0.03 0.05 0.00 0.00 0.00 0.00 0.00 0.00 0.00 0.00 0.00 0.00 0.00 0.00 0.02 0.00 0.00 0.00 0.00 0.00 0.01 0.00 0.00 0.00 0.00 0.02 0.00 0.00 0.01 0.00 0.00 0.00 0.01 0.01 0.01 0.00
0.26 0.30 0.33 0.24 0.10 0.05 0.07 0.08 0.12 0.19 0.37 0.03 0.00 0.00 0.00 0.00 0.00 0.00 0.00 0.00 0.00 0.00 0.00 0.01 0.00 0.00 0.00 0.00 0.00 0.01 0.00 0.00 0.00 0.00 0.01 0.02 0.00 0.02 0.00 0.00 0.00 0.00 0.01 0.01 0.01
0.35 0.41 0.43 0.41 0.23 0.06 0.04 0.12 0.39 0.68 0.51 0.04 0.00 0.00 0.00 0.00 0.00 0.00 0.00 0.00 0.00 0.00 0.00 0.01 0.01 0.01 0.01 0.00 0.00 0.00 0.00 0.00 0.00 0.00 0.00 0.01 0.02 0.01 0.01 0.01 0.04 0.08 0.05 0.02 0.04
0.33 0.42 0.44 0.31 0.31 0.22 0.22 0.41 0.79 0.60 0.16 0.03 0.00 0.00 0.00 0.00 0.00 0.00 0.00 0.01 0.06 0.10 0.02 0.00 0.00 0.01 0.01 0.00 0.00 0.00 0.02 0.06 0.13 0.05 0.02 0.05 0.05 0.03 0.00 0.01 0.09 0.12 0.03 0.05 0.19
0.49 0.44 0.36 0.24 0.20 0.33 0.60 1.31 1.24 0.24 0.03 0.02 0.00 0.00 0.04 0.03 0.03 0.03 0.06 0.09 0.09 0.16 0.09 0.02 0.01 0.01 0.01 0.00 0.04 0.02 0.03 0.24 0.36 0.09 0.07 0.06 0.02 0.01 0.01 0.04 0.09 0.13 0.09 0.16 0.30
0.76 0.62 0.51 0.26 0.24 0.44 0.96 1.52 0.67 0.20 0.12 0.11 0.02 0.03 0.05 0.08 0.09 0.09 0.18 0.34 0.42 0.41 0.43 0.16 0.08 0.01 0.00 0.01 0.04 0.12 0.08 0.08 0.31 0.08 0.09 0.01 0.00 0.00 0.01 0.03 0.06 0.09 0.13 0.28 0.31
0.78 0.77 0.49 0.35 0.47 0.81 1.35 0.80 0.19 0.05 0.02 0.03 0.06 0.05 0.02 0.05 0.11 0.24 0.46 0.46 0.26 0.33 0.43 0.33 0.29 0.05 0.05 0.03 0.02 0.11 0.10 0.17 0.19 0.17 0.12 0.00 0.01 0.02 0.03 0.03 0.02 0.08 0.21 0.56 0.46
1.02 1.30 0.64 0.50 1.15 1.84 1.26 0.31 0.07 0.01 0.01 0.02 0.03 0.03 0.02 0.08 0.12 0.34 0.63 0.58 0.16 0.12 0.25 0.40 0.34 0.16 0.27 0.26 0.09 0.15 0.26 0.20 0.25 0.12 0.26 0.17 0.02 0.03 0.07 0.08 0.08 0.26 0.43 0.52 0.81
1.77 1.53 0.84 0.93 1.53 1.22 0.53 0.14 0.04 0.01 0.00 0.00 0.01 0.04 0.09 0.12 0.16 0.27 0.52 0.40 0.15 0.17 0.17 0.35 0.39 0.12 0.10 0.33 0.14 0.05 0.15 0.15 0.52 0.31 0.13 0.19 0.07 0.01 0.07 0.09 0.14 0.46 0.68 0.70 0.83
2.23 1.52 1.61 1.28 1.29 0.59 0.18 0.07 0.03 0.03 0.02 0.02 0.02 0.07 0.07 0.07 0.15 0.07 0.15 0.04 0.02 0.13 0.36 0.39 0.41 0.25 0.19 0.37 0.25 0.16 0.03 0.03 0.16 0.24 0.18 0.25 0.06 0.04 0.06 0.12 0.26 0.77 0.94 0.93 0.98
2.50 2.25 2.92 2.29 0.68 0.34 0.37 0.31 0.16 0.03 0.03 0.05 0.04 0.06 0.06 0.04 0.09 0.09 0.06 0.07 0.01 0.02 0.10 0.40 0.58 0.55 0.52 0.33 0.36 0.34 0.19 0.09 0.36 0.50 0.15 0.09 0.10 0.13 0.15 0.31 0.56 1.32 1.40 1.39 1.15
3.02 1.17 0.99 1.32 0.84 0.27 0.23 0.27 0.22 0.18 0.09 0.06 0.06 0.07 0.12 0.08 0.04 0.04 0.11 0.11 0.08 0.03 0.01 0.20 0.45 0.36 0.17 0.03 0.02 0.18 0.26 0.30 0.57 0.35 0.38 0.17 0.09 0.16 0.38 0.60 0.69 0.86 1.19 1.17 1.30
2.61 0.56 0.29 0.18 0.18 0.31 0.35 0.24 0.20 0.15 0.17 0.15 0.05 0.02 0.03 0.08 0.07 0.05 0.09 0.28 0.21 0.22 0.17 0.17 0.23 0.11 0.09 0.03 0.02 0.15 0.50 0.49 0.46 0.33 0.15 0.07 0.07 0.20 0.45 0.66 0.60 0.75 0.77 1.63 1.23
1.83 0.29 0.50 0.36 0.29 0.43 0.34 0.16 0.15 0.12 0.09 0.06 0.07 0.08 0.08 0.07 0.07 0.12 0.10 0.15 0.27 0.44 0.44 0.29 0.24 0.16 0.08 0.03 0.09 0.59 0.46 0.56 1.20 0.52 0.38 0.61 0.56 0.53 0.72 0.78 0.74 1.31 2.20 1.61 0.96

GFSSW_prec_precacc_144.txt.gz
Total_Precipitation_Accumulation
0.02 0.01 0.01 0.01 0.00 0.00 0.00 0.00 0.00 0.00 0.00 0.00 0.00 0.00 0.00 0.00 0.00 0.00 0.00 0.00 0.00 0.00 0.00 0.00 0.00 0.00 0.00 0.00 0.00 0.00 0.00 0.00 0.01 0.02 0.18 0.25 0.17 0.26 0.11 0.01 0.04 0.21 1.07 0.42 0.22
0.02 0.02 0.02 0.02 0.01 0.00 0.00 0.00 0.00 0.00 0.00 0.00 0.00 0.00 0.00 0.00 0.00 0.00 0.00 0.00 0.00 0.00 0.00 0.00 0.00 0.00 0.00 0.00 0.00 0.00 0.00 0.00 0.03 0.08 0.25 0.33 0.04 0.18 0.07 0.03 0.19 0.63 1.02 0.34 0.21
0.01 0.02 0.02 0.01 0.00 0.00 0.00 0.00 0.00 0.00 0.00 0.00 0.00 0.00 0.00 0.00 0.00 0.00 0.00 0.00 0.00 0.00 0.00 0.00 0.00 0.00 0.00 0.00 0.00 0.00 0.00 0.00 0.00 0.06 0.10 0.29 0.01 0.05 0.03 0.06 0.42 0.46 0.60 0.36 0.34
0.00 0.00 0.01 0.01 0.00 0.00 0.00 0.00 0.00 0.00 0.00 0.00 0.00 0.00 0.00 0.00 0.00 0.00 0.00 0.00 0.00 0.00 0.00 0.00 0.00 0.00 0.00 0.00 0.00 0.00 0.00 0.00 0.00 0.00 0.00 0.00 0.07 0.15 0.09 0.10 0.21 0.45 0.47 0.33 0.41
0.00 0.00 0.00 0.00 0.00 0.00 0.00 0.00 0.00 0.00 0.00 0.00 0.00 0.00 0.00 0.00 0.00 0.00 0.00 0.00 0.00 0.00 0.00 0.00 0.00 0.00 0.00 0.00 0.00 0.00 0.00 0.00 0.00 0.01 0.00 0.01 0.09 0.11 0.01 0.05 0.22 0.39 0.26 0.25 0.29
0.01 0.01 0.00 0.00 0.00 0.00 0.00 0.00 0.00 0.00 0.00 0.00 0.00 0.00 0.00 0.00 0.00 0.00 0.00 0.00 0.00 0.00 0.00 0.00 0.00 0.00 0.00 0.00 0.00 0.00 0.00 0.00 0.00 0.00 0.00 0.00 0.18 0.02 0.11 0.13 0.30 0.94 0.29 0.16 0.19
0.02 0.01 0.01 0.01 0.01 0.01 0.01 0.00 0.00 0.00 0.00 0.00 0.00 0.00 0.00 0.00 0.00 0.00 0.00 0.00 0.00 0.00 0.00 0.00 0.00 0.00 0.00 0.00 0.00 0.00 0.00 0.00 0.04 0.02 0.00 0.02 0.06 0.02 0.16 0.27 0.40 0.34 0.16 0.04 0.04
0.04 0.03 0.03 0.03 0.02 0.01 0.01 0.00 0.00 0.00 0.00 0.00 0.00 0.00 0.00 0.00 0.00 0.00 0.00 0.00 0.00 0.00 0.00 0.00 0.00 0.00 0.00 0.00 0.00 0.00 0.00 0.00 0.05 0.01 0.00 0.01 0.13 0.25 0.31 0.13 0.33 0.47 0.10 0.03 0.00
0.12 0.08 0.08 0.09 0.08 0.06 0.04 0.01 0.00 0.00 0.00 0.00 0.00 0.00 0.00 0.00 0.00 0.00 0.00 0.00 0.00 0.00 0.00 0.00 0.00 0.00 0.00 0.01 0.00 0.00 0.00 0.00 0.00 0.00 0.00 0.00 0.00 0.03 0.15 0.27 0.39 0.29 0.04 0.00 0.00
0.06 0.06 0.06 0.11 0.18 0.15 0.07 0.03 0.00 0.00 0.00 0.00 0.01 0.01 0.00 0.00 0.00 0.00 0.00 0.01 0.01 0.00 0.00 0.00 0.00 0.00 0.00 0.00 0.00 0.00 0.00 0.00 0.00 0.00 0.00 0.00 0.00 0.00 0.02 0.06 0.06 0.05 0.02 0.01 0.00
0.10 0.06 0.04 0.08 0.17 0.17 0.05 0.02 0.00 0.00 0.00 0.00 0.00 0.00 0.00 0.00 0.00 0.00 0.00 0.00 0.00 0.00 0.02 0.00 0.00 0.00 0.00 0.00 0.00 0.00 0.00 0.00 0.00 0.00 0.00 0.00 0.00 0.00 0.00 0.01 0.03 0.04 0.03 0.01 0.00
0.16 0.13 0.10 0.18 0.30 0.19 0.04 0.01 0.01 0.00 0.00 0.00 0.00 0.00 0.00 0.00 0.00 0.00 0.00 0.00 0.00 0.00 0.01 0.00 0.00 0.00 0.00 0.00 0.00 0.00 0.00 0.00 0.00 0.00 0.00 0.00 0.00 0.00 0.00 0.00 0.00 0.01 0.01 0.00 0.00
0.17 0.20 0.24 0.37 0.31 0.14 0.03 0.01 0.01 0.00 0.02 0.00 0.00 0.00 0.00 0.00 0.00 0.00 0.00 0.00 0.00 0.00 0.00 0.01 0.01 0.00 0.00 0.00 0.00 0.00 0.00 0.00 0.00 0.00 0.00 0.00 0.00 0.00 0.00 0.01 0.01 0.01 0.00 0.00 0.00
0.18 0.17 0.33 0.51 0.35 0.16 0.10 0.03 0.04 0.05 0.22 0.05 0.00 0.00 0.00 0.00 0.00 0.00 0.00 0.00 0.00 0.00 0.00 0.02 0.00 0.00 0.00 0.00 0.00 0.01 0.00 0.00 0.00 0.00 0.02 0.00 0.00 0.01 0.00 0.00 0.00 0.01 0.01 0.01 0.00
0.26 0.30 0.33 0.25 0.10 0.05 0.07 0.08 0.12 0.24 0.64 0.07 0.00 0.00 0.00 0.00 0.00 0.00 0.00 0.00 0.00 0.00 0.00 0.01 0.00 0.00 0.00 0.00 0.00 0.01 0.00 0.00 0.00 0.00 0.01 0.02 0.00 0.02 0.00 0.00 0.00 0.00 0.01 0.01 0.01
0.35 0.42 0.43 0.42 0.24 0.07 0.04 0.12 0.42 0.88 0.71 0.06 0.00 0.00 0.00 0.00 0.00 0.00 0.00 0.00 0.00 0.00 0.00 0.01 0.01 0.01 0.01 0.00 0.00 0.00 0.00 0.00 0.00 0.00 0.00 0.01 0.02 0.01 0.01 0.01 0.04 0.08 0.05 0.02 0.04
0.33 0.43 0.45 0.31 0.32 0.22 0.22 0.42 0.90 0.82 0.22 0.03 0.00 0.00 0.00 0.00 0.00 0.00 0.00 0.01 0.06 0.10 0.02 0.00 0.00 0.01 0.01 0.00 0.00 0.00 0.02 0.06 0.13 0.05 0.02 0.05 0.05 0.03 0.00 0.01 0.09 0.12 0.03 0.05 0.19
0.50 0.47 0.38 0.25 0.20 0.33 0.64 1.36 1.34 0.32 0.06 0.02 0.00 0.00 0.04 0.03 0.03 0.03 0.06 0.09 0.09 0.16 0.09 0.02 0.01 0.01 0.01 0.00 0.04 0.02 0.03 0.24 0.36 0.09 0.07 0.06 0.02 0.01 0.01 0.04 0.09 0.13 0.09 0.16 0.30
0.78 0.66 0.55 0.27 0.24 0.44 1.03 1.67 0.72 0.22 0.13 0.11 0.02 0.03 0.06 0.08 0.09 0.09 0.18 0.34 0.42 0.41 0.43 0.16 0.08 0.01 0.00 0.01 0.04 0.12 0.08 0.08 0.31 0.08 0.09 0.01 0.00 0.00 0.01 0.03 0.06 0.09 0.13 0.28 0.31
0.84 0.84 0.52 0.36 0.48 0.84 1.46 0.92 0.23 0.05 0.02 0.03 0.07 0.05 0.02 0.05 0.11 0.24 0.46 0.46 0.26 0.33 0.43 0.33 0.29 0.05 0.05 0.03 0.02 0.11 0.10 0.17 0.19 0.17 0.12 0.00 0.01 0.02 0.03 0.03 0.02 0.08 0.21 0.56 0.46
1.12 1.41 0.67 0.52 1.25 2.02 1.44 0.37 0.09 0.01 0.01 0.03 0.03 0.04 0.02 0.08 0.12 0.34 0.63 0.58 0.16 0.12 0.25 0.40 0.34 0.16 0.27 0.26 0.09 0.15 0.26 0.20 0.25 0.12 0.26 0.17 0.02 0.03 0.07 0.08 0.08 0.26 0.43 0.52 0.81
1.85 1.59 0.86 0.94 1.68 1.43 0.61 0.15 0.05 0.01 0.01 0.01 0.02 0.04 0.09 0.12 0.16 0.27 0.52 0.40 0.15 0.17 0.17 0.35 0.39 0.12 0.10 0.33 0.14 0.05 0.15 0.15 0.52 0.31 0.13 0.19 0.07 0.01 0.07 0.09 0.14 0.46 0.68 0.70 0.83
2.43 1.59 1.68 1.29 1.35 0.64 0.20 0.08 0.04 0.03 0.03 0.03 0.02 0.07 0.07 0.07 0.16 0.08 0.15 0.04 0.02 0.13 0.36 0.39 0.41 0.25 0.19 0.37 0.25 0.16 0.03 0.03 0.16 0.24 0.18 0.25 0.06 0.04 0.06 0.12 0.26 0.77 0.94 0.93 0.98
2.72 2.53 3.15 2.52 0.71 0.35 0.38 0.32 0.16 0.03 0.03 0.06 0.05 0.06 0.06 0.05 0.10 0.10 0.07 0.07 0.01 0.02 0.10 0.40 0.58 0.55 0.52 0.33 0.36 0.34 0.19 0.09 0.36 0.50 0.15 0.09 0.10 0.13 0.15 0.31 0.56 1.32 1.40 1.39 1.15
3.22 1.37 1.11 1.49 0.91 0.27 0.23 0.28 0.23 0.18 0.09 0.07 0.07 0.07 0.13 0.09 0.04 0.04 0.11 0.11 0.08 0.03 0.01 0.20 0.46 0.36 0.17 0.03 0.02 0.18 0.26 0.30 0.57 0.35 0.38 0.17 0.09 0.16 0.38 0.60 0.69 0.86 1.19 1.17 1.30
2.79 0.67 0.32 0.19 0.19 0.32 0.35 0.25 0.21 0.16 0.17 0.16 0.06 0.02 0.03 0.08 0.07 0.06 0.09 0.28 0.21 0.22 0.17 0.17 0.24 0.11 0.09 0.03 0.02 0.15 0.50 0.49 0.46 0.33 0.15 0.07 0.07 0.20 0.45 0.66 0.60 0.75 0.77 1.63 1.23
1.98 0.33 0.53 0.38 0.30 0.45 0.34 0.16 0.16 0.12 0.09 0.06 0.07 0.09 0.08 0.07 0.07 0.12 0.10 0.15 0.28 0.45 0.45 0.30 0.24 0.17 0.08 0.03 0.09 0.59 0.46 0.56 1.20 0.52 0.38 0.61 0.56 0.53 0.72 0.78 0.74 1.31 2.20 1.61 0.96

GFSSW_prec_precacc_147.txt.gz
Total_Precipitation_Accumulation
0.02 0.01 0.01 0.01 0.00 0.00 0.00 0.00 0.00 0.00 0.00 0.00 0.00 0.00 0.00 0.00 0.00 0.00 0.00 0.00 0.00 0.00 0.00 0.00 0.00 0.00 0.00 0.00 0.00 0.00 0.00 0.00 0.01 0.02 0.18 0.25 0.17 0.26 0.11 0.01 0.04 0.21 1.07 0.42 0.22
0.02 0.02 0.02 0.02 0.01 0.00 0.00 0.00 0.00 0.00 0.00 0.00 0.00 0.00 0.00 0.00 0.00 0.00 0.00 0.00 0.00 0.00 0.00 0.00 0.00 0.00 0.00 0.00 0.00 0.00 0.00 0.00 0.03 0.08 0.25 0.33 0.04 0.18 0.07 0.03 0.19 0.63 1.02 0.34 0.21
0.01 0.02 0.02 0.01 0.00 0.00 0.00 0.00 0.00 0.00 0.00 0.00 0.00 0.00 0.00 0.00 0.00 0.00 0.00 0.00 0.00 0.00 0.00 0.00 0.00 0.00 0.00 0.00 0.00 0.00 0.00 0.00 0.00 0.06 0.10 0.29 0.01 0.05 0.03 0.06 0.42 0.46 0.60 0.36 0.34
0.00 0.00 0.01 0.01 0.00 0.00 0.00 0.00 0.00 0.00 0.00 0.00 0.00 0.00 0.00 0.00 0.00 0.00 0.00 0.00 0.00 0.00 0.00 0.00 0.00 0.00 0.00 0.00 0.00 0.00 0.00 0.00 0.00 0.00 0.00 0.00 0.07 0.15 0.09 0.10 0.21 0.45 0.47 0.33 0.41
0.00 0.00 0.00 0.00 0.00 0.00 0.00 0.00 0.00 0.00 0.00 0.00 0.00 0.00 0.00 0.00 0.00 0.00 0.00 0.00 0.00 0.00 0.00 0.00 0.00 0.00 0.00 0.00 0.00 0.00 0.00 0.00 0.00 0.01 0.00 0.01 0.09 0.11 0.01 0.05 0.22 0.39 0.26 0.25 0.29
0.02 0.01 0.00 0.01 0.01 0.01 0.00 0.00 0.00 0.00 0.00 0.00 0.00 0.00 0.00 0.00 0.00 0.00 0.00 0.00 0.00 0.00 0.00 0.00 0.00 0.00 0.00 0.00 0.00 0.00 0.00 0.00 0.00 0.00 0.00 0.00 0.18 0.02 0.11 0.13 0.30 0.94 0.29 0.16 0.19
0.02 0.01 0.01 0.01 0.02 0.02 0.01 0.00 0.00 0.00 0.00 0.00 0.00 0.00 0.00 0.00 0.00 0.00 0.00 0.00 0.00 0.00 0.00 0.00 0.00 0.00 0.00 0.00 0.00 0.00 0.00 0.00 0.04 0.02 0.00 0.02 0.06 0.02 0.16 0.27 0.40 0.34 0.16 0.04 0.04
0.05 0.04 0.04 0.03 0.02 0.01 0.01 0.00 0.00 0.00 0.00 0.00 0.00 0.00 0.00 0.00 0.00 0.00 0.00 0.00 0.00 0.00 0.00 0.00 0.00 0.00 0.00 0.00 0.00 0.00 0.00 0.00 0.05 0.01 0.00 0.01 0.13 0.25 0.31 0.13 0.33 0.47 0.10 0.03 0.00
0.12 0.09 0.08 0.10 0.09 0.07 0.05 0.02 0.00 0.00 0.00 0.00 0.00 0.00 0.00 0.00 0.00 0.00 0.00 0.00 0.00 0.00 0.00 0.00 0.00 0.00 0.00 0.01 0.00 0.00 0.00 0.00 0.00 0.00 0.00 0.00 0.00 0.03 0.15 0.27 0.39 0.29 0.04 0.00 0.00
0.06 0.06 0.06 0.12 0.21 0.19 0.09 0.04 0.00 0.00 0.00 0.00 0.01 0.01 0.00 0.00 0.00 0.00 0.00 0.01 0.01 0.00 0.00 0.00 0.00 0.00 0.00 0.00 0.00 0.00 0.00 0.00 0.00 0.00 0.00 0.00 0.00 0.00 0.02 0.06 0.06 0.05 0.02 0.01 0.00
0.10 0.06 0.04 0.08 0.19 0.22 0.09 0.02 0.01 0.00 0.00 0.00 0.00 0.00 0.00 0.00 0.00 0.00 0.00 0.00 0.00 0.00 0.02 0.00 0.00 0.00 0.00 0.00 0.00 0.00 0.00 0.00 0.00 0.00 0.00 0.00 0.00 0.00 0.00 0.01 0.03 0.04 0.03 0.01 0.00
0.16 0.13 0.10 0.18 0.32 0.23 0.07 0.02 0.01 0.00 0.01 0.00 0.00 0.00 0.00 0.00 0.00 0.00 0.00 0.00 0.00 0.00 0.01 0.00 0.00 0.00 0.00 0.00 0.00 0.00 0.00 0.00 0.00 0.00 0.00 0.00 0.00 0.00 0.00 0.00 0.00 0.01 0.01 0.00 0.00
0.18 0.21 0.24 0.37 0.32 0.15 0.04 0.02 0.03 0.01 0.03 0.00 0.00 0.00 0.00 0.00 0.00 0.00 0.00 0.00 0.00 0.00 0.00 0.01 0.01 0.00 0.00 0.00 0.00 0.00 0.00 0.00 0.00 0.00 0.00 0.00 0.00 0.00 0.00 0.01 0.01 0.01 0.00 0.00 0.00
0.18 0.18 0.34 0.51 0.36 0.16 0.11 0.03 0.05 0.11 0.30 0.06 0.00 0.00 0.00 0.00 0.00 0.00 0.00 0.00 0.00 0.00 0.00 0.02 0.00 0.00 0.00 0.00 0.00 0.01 0.00 0.00 0.00 0.00 0.02 0.00 0.00 0.01 0.00 0.00 0.00 0.01 0.01 0.01 0.00
0.26 0.31 0.33 0.25 0.10 0.05 0.07 0.08 0.12 0.29 0.81 0.10 0.00 0.00 0.00 0.00 0.00 0.00 0.00 0.00 0.00 0.00 0.00 0.01 0.00 0.00 0.00 0.00 0.00 0.01 0.00 0.00 0.00 0.00 0.01 0.02 0.00 0.02 0.00 0.00 0.00 0.00 0.01 0.01 0.01
0.35 0.43 0.43 0.42 0.24 0.07 0.04 0.12 0.42 0.90 0.76 0.06 0.00 0.00 0.00 0.00 0.00 0.00 0.00 0.00 0.00 0.00 0.00 0.01 0.01 0.01 0.01 0.00 0.00 0.00 0.00 0.00 0.00 0.00 0.00 0.01 0.02 0.01 0.01 0.01 0.04 0.08 0.05 0.02 0.04
0.33 0.45 0.46 0.31 0.32 0.22 0.22 0.45 0.96 0.85 0.23 0.04 0.00 0.00 0.00 0.00 0.00 0.00 0.00 0.01 0.06 0.10 0.02 0.00 0.00 0.01 0.01 0.00 0.00 0.00 0.02 0.06 0.13 0.05 0.02 0.05 0.05 0.03 0.00 0.01 0.09 0.12 0.03 0.05 0.19
0.50 0.47 0.39 0.26 0.20 0.34 0.67 1.44 1.43 0.34 0.06 0.02 0.00 0.00 0.04 0.03 0.03 0.03 0.06 0.09 0.09 0.16 0.09 0.02 0.01 0.01 0.01 0.00 0.04 0.02 0.03 0.24 0.36 0.09 0.07 0.06 0.02 0.01 0.01 0.04 0.09 0.13 0.09 0.16 0.30
0.80 0.68 0.57 0.29 0.25 0.45 1.08 1.75 0.78 0.22 0.13 0.11 0.02 0.03 0.06 0.08 0.09 0.09 0.18 0.34 0.42 0.41 0.43 0.16 0.08 0.01 0.00 0.01 0.04 0.12 0.08 0.08 0.31 0.08 0.09 0.01 0.00 0.00 0.01 0.03 0.06 0.09 0.13 0.28 0.31
0.88 0.90 0.53 0.37 0.50 0.87 1.56 0.97 0.24 0.05 0.02 0.04 0.09 0.05 0.02 0.05 0.11 0.24 0.46 0.46 0.26 0.33 0.43 0.33 0.29 0.05 0.05 0.03 0.02 0.11 0.10 0.17 0.19 0.17 0.12 0.00 0.01 0.02 0.03 0.03 0.02 0.08 0.21 0.56 0.46
1.22 1.49 0.68 0.54 1.31 2.14 1.55 0.41 0.09 0.01 0.01 0.04 0.07 0.07 0.02 0.08 0.12 0.34 0.63 0.58 0.16 0.12 0.25 0.40 0.35 0.16 0.27 0.26 0.09 0.15 0.26 0.20 0.25 0.12 0.26 0.17 0.02 0.03 0.07 0.08 0.08 0.26 0.43 0.52 0.81
1.95 1.67 0.89 0.97 1.79 1.58 0.71 0.16 0.05 0.01 0.01 0.02 0.04 0.06 0.10 0.12 0.16 0.27 0.52 0.40 0.15 0.17 0.17 0.35 0.39 0.13 0.10 0.33 0.14 0.05 0.15 0.15 0.52 0.31 0.13 0.19 0.07 0.01 0.07 0.09 0.14 0.46 0.68 0.70 0.83
2.56 1.71 1.76 1.36 1.46 0.74 0.21 0.08 0.04 0.03 0.03 0.03 0.03 0.08 0.08 0.08 0.18 0.08 0.15 0.04 0.02 0.13 0.36 0.39 0.41 0.26 0.20 0.37 0.25 0.16 0.03 0.03 0.16 0.24 0.18 0.25 0.06 0.04 0.06 0.12 0.26 0.77 0.94 0.93 0.98
2.82 2.79 3.39 2.67 0.80 0.37 0.38 0.32 0.16 0.03 0.03 0.08 0.08 0.09 0.09 0.06 0.13 0.10 0.07 0.07 0.01 0.02 0.10 0.40 0.58 0.56 0.53 0.33 0.36 0.34 0.19 0.09 0.36 0.50 0.15 0.09 0.10 0.13 0.15 0.31 0.56 1.32 1.40 1.39 1.15
3.32 1.51 1.29 1.70 0.94 0.28 0.23 0.28 0.23 0.18 0.09 0.07 0.08 0.08 0.14 0.10 0.06 0.04 0.11 0.11 0.08 0.03 0.01 0.21 0.47 0.37 0.18 0.03 0.02 0.18 0.26 0.30 0.57 0.35 0.38 0.17 0.09 0.16 0.38 0.60 0.69 0.86 1.19 1.17 1.30
2.89 0.71 0.37 0.29 0.20 0.32 0.35 0.25 0.21 0.16 0.17 0.16 0.06 0.02 0.04 0.09 0.08 0.06 0.09 0.28 0.21 0.22 0.17 0.18 0.25 0.13 0.12 0.04 0.03 0.15 0.50 0.49 0.46 0.33 0.15 0.07 0.07 0.20 0.45 0.66 0.60 0.75 0.77 1.63 1.23
2.06 0.35 0.58 0.44 0.41 0.47 0.35 0.16 0.16 0.12 0.09 0.06 0.07 0.10 0.10 0.08 0.08 0.14 0.12 0.16 0.28 0.45 0.46 0.31 0.26 0.20 0.11 0.04 0.11 0.60 0.46 0.56 1.20 0.52 0.38 0.61 0.56 0.53 0.72 0.78 0.74 1.31 2.20 1.61 0.96

GFSSW_prec_precacc_150.txt.gz
Total_Precipitation_Accumulation
0.02 0.01 0.01 0.01 0.00 0.00 0.00 0.00 0.00 0.00 0.00 0.00 0.00 0.00 0.00 0.00 0.00 0.00 0.00 0.00 0.00 0.00 0.00 0.00 0.00 0.00 0.00 0.00 0.00 0.00 0.00 0.00 0.01 0.02 0.18 0.25 0.17 0.26 0.11 0.01 0.04 0.21 1.07 0.42 0.22
0.02 0.02 0.02 0.02 0.01 0.00 0.00 0.00 0.00 0.00 0.00 0.00 0.00 0.00 0.00 0.00 0.00 0.00 0.00 0.00 0.00 0.00 0.00 0.00 0.00 0.00 0.00 0.00 0.00 0.00 0.00 0.00 0.03 0.08 0.25 0.33 0.04 0.18 0.07 0.03 0.19 0.63 1.02 0.34 0.21
0.01 0.02 0.02 0.01 0.00 0.00 0.00 0.00 0.00 0.00 0.00 0.00 0.00 0.00 0.00 0.00 0.00 0.00 0.00 0.00 0.00 0.00 0.00 0.00 0.00 0.00 0.00 0.00 0.00 0.00 0.00 0.00 0.00 0.06 0.10 0.29 0.01 0.05 0.03 0.06 0.42 0.46 0.60 0.36 0.34
0.00 0.00 0.01 0.01 0.00 0.00 0.00 0.00 0.00 0.00 0.00 0.00 0.00 0.00 0.00 0.00 0.00 0.00 0.00 0.00 0.00 0.00 0.00 0.00 0.00 0.00 0.00 0.00 0.00 0.00 0.00 0.00 0.00 0.00 0.00 0.00 0.07 0.15 0.09 0.10 0.21 0.45 0.47 0.33 0.41
0.00 0.00 0.00 0.00 0.00 0.00 0.00 0.00 0.00 0.00 0.00 0.00 0.00 0.00 0.00 0.00 0.00 0.00 0.00 0.00 0.00 0.00 0.00 0.00 0.00 0.00 0.00 0.00 0.00 0.00 0.00 0.00 0.00 0.01 0.00 0.01 0.09 0.11 0.01 0.05 0.22 0.39 0.26 0.25 0.29
0.02 0.01 0.00 0.01 0.01 0.01 0.00 0.00 0.00 0.00 0.00 0.00 0.00 0.00 0.00 0.00 0.00 0.00 0.00 0.00 0.00 0.00 0.00 0.00 0.00 0.00 0.00 0.00 0.00 0.00 0.00 0.00 0.00 0.00 0.00 0.00 0.18 0.02 0.11 0.13 0.30 0.94 0.29 0.16 0.19
0.03 0.01 0.02 0.01 0.02 0.02 0.01 0.00 0.00 0.00 0.00 0.00 0.00 0.00 0.00 0.00 0.00 0.00 0.00 0.00 0.00 0.00 0.00 0.00 0.00 0.00 0.00 0.00 0.00 0.00 0.00 0.00 0.04 0.02 0.00 0.02 0.06 0.02 0.16 0.27 0.40 0.34 0.16 0.04 0.04
0.05 0.04 0.04 0.04 0.02 0.01 0.01 0.00 0.00 0.00 0.00 0.00 0.00 0.00 0.00 0.00 0.00 0.00 0.00 0.00 0.00 0.00 0.00 0.00 0.00 0.00 0.00 0.00 0.00 0.00 0.00 0.00 0.05 0.01 0.00 0.01 0.13 0.25 0.31 0.13 0.33 0.47 0.10 0.03 0.00
0.12 0.09 0.08 0.11 0.10 0.08 0.06 0.02 0.00 0.00 0.00 0.00 0.00 0.00 0.00 0.00 0.00 0.00 0.00 0.00 0.00 0.00 0.00 0.00 0.00 0.00 0.00 0.01 0.00 0.00 0.00 0.00 0.00 0.00 0.00 0.00 0.00 0.03 0.15 0.27 0.39 0.29 0.04 0.00 0.00
0.06 0.06 0.06 0.12 0.21 0.20 0.11 0.05 0.00 0.00 0.00 0.00 0.01 0.01 0.00 0.00 0.00 0.00 0.00 0.01 0.01 0.00 0.00 0.00 0.00 0.00 0.00 0.00 0.00 0.00 0.00 0.00 0.00 0.00 0.00 0.00 0.00 0.00 0.02 0.06 0.06 0.05 0.02 0.01 0.00
0.10 0.06 0.04 0.08 0.19 0.23 0.11 0.04 0.01 0.00 0.00 0.00 0.00 0.00 0.00 0.00 0.00 0.00 0.00 0.00 0.00 0.00 0.02 0.00 0.00 0.00 0.00 0.00 0.00 0.00 0.00 0.00 0.00 0.00 0.00 0.00 0.00 0.00 0.00 0.01 0.03 0.04 0.03 0.01 0.00
0.16 0.13 0.10 0.18 0.32 0.24 0.08 0.02 0.01 0.00 0.01 0.00 0.00 0.00 0.00 0.00 0.00 0.00 0.00 0.00 0.00 0.00 0.01 0.00 0.00 0.00 0.00 0.00 0.00 0.00 0.00 0.00 0.00 0.00 0.00 0.00 0.00 0.00 0.00 0.00 0.00 0.01 0.01 0.00 0.00
0.18 0.21 0.24 0.37 0.33 0.16 0.04 0.02 0.03 0.02 0.03 0.00 0.00 0.00 0.00 0.00 0.00 0.00 0.00 0.00 0.00 0.00 0.00 0.01 0.01 0.00 0.00 0.00 0.00 0.00 0.00 0.00 0.00 0.00 0.00 0.00 0.00 0.00 0.00 0.01 0.01 0.01 0.00 0.00 0.00
0.18 0.18 0.34 0.51 0.36 0.16 0.11 0.03 0.05 0.12 0.30 0.06 0.00 0.00 0.00 0.00 0.00 0.00 0.00 0.00 0.00 0.00 0.00 0.02 0.00 0.00 0.00 0.00 0.00 0.01 0.00 0.00 0.00 0.00 0.02 0.00 0.00 0.01 0.00 0.00 0.00 0.01 0.01 0.01 0.00
0.26 0.31 0.34 0.25 0.10 0.05 0.07 0.08 0.12 0.29 0.82 0.10 0.00 0.00 0.00 0.00 0.00 0.00 0.00 0.00 0.00 0.00 0.00 0.01 0.00 0.00 0.00 0.00 0.00 0.01 0.00 0.00 0.00 0.00 0.01 0.02 0.00 0.02 0.00 0.00 0.00 0.00 0.01 0.01 0.01
0.35 0.44 0.44 0.43 0.24 0.07 0.04 0.12 0.43 0.91 0.76 0.06 0.00 0.00 0.00 0.00 0.00 0.00 0.00 0.00 0.00 0.00 0.00 0.01 0.01 0.01 0.01 0.00 0.00 0.00 0.00 0.00 0.00 0.00 0.00 0.01 0.02 0.01 0.01 0.01 0.04 0.08 0.05 0.02 0.04
0.33 0.45 0.48 0.31 0.32 0.22 0.22 0.47 1.00 0.88 0.23 0.04 0.00 0.00 0.00 0.00 0.00 0.00 0.00 0.01 0.06 0.10 0.02 0.00 0.00 0.01 0.01 0.00 0.00 0.00 0.02 0.06 0.13 0.05 0.02 0.05 0.05 0.03 0.00 0.01 0.09 0.12 0.03 0.05 0.19
0.50 0.48 0.41 0.27 0.20 0.34 0.67 1.46 1.48 0.34 0.06 0.02 0.00 0.00 0.04 0.03 0.03 0.03 0.06 0.09 0.09 0.16 0.09 0.02 0.01 0.01 0.01 0.00 0.04 0.02 0.03 0.24 0.36 0.09 0.07 0.06 0.02 0.01 0.01 0.04 0.09 0.13 0.09 0.16 0.30
0.83 0.69 0.58 0.30 0.25 0.46 1.09 1.80 0.79 0.22 0.13 0.11 0.02 0.03 0.06 0.08 0.09 0.10 0.18 0.34 0.42 0.41 0.43 0.16 0.08 0.01 0.00 0.01 0.04 0.12 0.08 0.08 0.31 0.08 0.09 0.01 0.00 0.00 0.01 0.03 0.06 0.09 0.13 0.28 0.31
0.90 0.90 0.53 0.37 0.53 0.91 1.61 1.01 0.24 0.05 0.02 0.04 0.09 0.05 0.02 0.05 0.11 0.24 0.46 0.46 0.26 0.33 0.43 0.33 0.29 0.05 0.05 0.03 0.02 0.11 0.10 0.17 0.19 0.17 0.12 0.00 0.01 0.02 0.03 0.03 0.02 0.08 0.21 0.56 0.46
1.26 1.52 0.68 0.55 1.37 2.25 1.64 0.43 0.09 0.01 0.01 0.04 0.07 0.08 0.02 0.08 0.12 0.34 0.63 0.58 0.16 0.12 0.25 0.40 0.35 0.16 0.27 0.26 0.09 0.15 0.26 0.20 0.25 0.12 0.26 0.17 0.02 0.03 0.07 0.08 0.08 0.26 0.43 0.52 0.81
1.98 1.73 0.89 0.99 1.88 1.69 0.83 0.17 0.05 0.01 0.01 0.02 0.04 0.06 0.10 0.12 0.16 0.27 0.52 0.40 0.15 0.17 0.17 0.35 0.40 0.13 0.10 0.33 0.14 0.05 0.15 0.15 0.52 0.31 0.13 0.19 0.07 0.01 0.07 0.09 0.14 0.46 0.68 0.70 0.83
2.57 1.77 1.82 1.41 1.53 0.84 0.25 0.08 0.04 0.03 0.03 0.03 0.03 0.08 0.09 0.09 0.22 0.09 0.16 0.04 0.02 0.13 0.36 0.39 0.42 0.26 0.20 0.37 0.25 0.16 0.03 0.03 0.16 0.24 0.18 0.25 0.06 0.04 0.06 0.12 0.26 0.77 0.94 0.93 0.98
2.88 2.83 3.50 2.85 0.84 0.40 0.40 0.32 0.16 0.03 0.03 0.08 0.08 0.10 0.10 0.08 0.17 0.13 0.08 0.08 0.01 0.02 0.10 0.40 0.59 0.56 0.53 0.33 0.36 0.34 0.19 0.09 0.37 0.52 0.15 0.09 0.11 0.13 0.15 0.31 0.56 1.32 1.40 1.39 1.15
3.50 1.56 1.32 1.88 1.06 0.29 0.23 0.28 0.23 0.18 0.09 0.07 0.08 0.08 0.15 0.11 0.06 0.05 0.12 0.12 0.09 0.04 0.01 0.21 0.47 0.37 0.19 0.04 0.03 0.18 0.26 0.30 0.58 0.35 0.38 0.17 0.10 0.17 0.38 0.60 0.69 0.86 1.19 1.17 1.30
3.02 0.77 0.38 0.36 0.30 0.36 0.37 0.25 0.21 0.16 0.17 0.16 0.06 0.02 0.04 0.09 0.08 0.06 0.11 0.30 0.22 0.23 0.18 0.19 0.25 0.14 0.14 0.05 0.05 0.16 0.51 0.49 0.47 0.34 0.15 0.07 0.08 0.20 0.45 0.66 0.60 0.75 0.77 1.63 1.23
2.13 0.36 0.61 0.45 0.48 0.68 0.41 0.16 0.16 0.12 0.09 0.06 0.07 0.10 0.10 0.08 0.08 0.17 0.18 0.21 0.33 0.46 0.46 0.32 0.26 0.20 0.12 0.05 0.16 0.69 0.46 0.56 1.20 0.53 0.39 0.62 0.56 0.53 0.72 0.78 0.74 1.31 2.20 1.61 0.96

GFSSW_prec_precacc_153.txt.gz
Total_Precipitation_Accumulation
0.02 0.01 0.01 0.01 0.00 0.00 0.00 0.00 0.00 0.00 0.00 0.00 0.00 0.00 0.00 0.00 0.00 0.00 0.00 0.00 0.00 0.00 0.00 0.00 0.00 0.00 0.00 0.00 0.00 0.00 0.00 0.00 0.01 0.02 0.18 0.25 0.17 0.26 0.11 0.01 0.04 0.21 1.07 0.42 0.22
0.02 0.02 0.02 0.02 0.01 0.00 0.00 0.00 0.00 0.00 0.00 0.00 0.00 0.00 0.00 0.00 0.00 0.00 0.00 0.00 0.00 0.00 0.00 0.00 0.00 0.00 0.00 0.00 0.00 0.00 0.00 0.00 0.03 0.08 0.25 0.33 0.04 0.18 0.07 0.03 0.19 0.63 1.02 0.34 0.21
0.01 0.02 0.02 0.01 0.00 0.00 0.00 0.00 0.00 0.00 0.00 0.00 0.00 0.00 0.00 0.00 0.00 0.00 0.00 0.00 0.00 0.00 0.00 0.00 0.00 0.00 0.00 0.00 0.00 0.00 0.00 0.00 0.00 0.06 0.10 0.29 0.01 0.05 0.03 0.06 0.42 0.46 0.60 0.36 0.34
0.00 0.00 0.01 0.01 0.00 0.00 0.00 0.00 0.00 0.00 0.00 0.00 0.00 0.00 0.00 0.00 0.00 0.00 0.00 0.00 0.00 0.00 0.00 0.00 0.00 0.00 0.00 0.00 0.00 0.00 0.00 0.00 0.00 0.00 0.00 0.00 0.07 0.15 0.09 0.10 0.21 0.45 0.47 0.33 0.41
0.01 0.01 0.01 0.00 0.00 0.00 0.00 0.00 0.00 0.00 0.00 0.00 0.00 0.00 0.00 0.00 0.00 0.00 0.00 0.00 0.00 0.00 0.00 0.00 0.00 0.00 0.00 0.00 0.00 0.00 0.00 0.00 0.00 0.01 0.00 0.01 0.09 0.11 0.01 0.05 0.22 0.39 0.26 0.25 0.29
0.03 0.02 0.01 0.01 0.01 0.01 0.00 0.00 0.00 0.00 0.00 0.00 0.00 0.00 0.00 0.00 0.00 0.00 0.00 0.00 0.00 0.00 0.00 0.00 0.00 0.00 0.00 0.00 0.00 0.00 0.00 0.00 0.00 0.00 0.00 0.00 0.18 0.02 0.11 0.13 0.30 0.94 0.29 0.16 0.19
0.03 0.02 0.03 0.02 0.02 0.02 0.01 0.00 0.00 0.00 0.00 0.00 0.00 0.00 0.00 0.00 0.00 0.00 0.00 0.00 0.00 0.00 0.00 0.00 0.00 0.00 0.00 0.00 0.00 0.00 0.00 0.00 0.04 0.02 0.00 0.02 0.06 0.02 0.16 0.27 0.40 0.34 0.16 0.04 0.04
0.05 0.04 0.04 0.04 0.03 0.02 0.01 0.00 0.00 0.00 0.00 0.00 0.00 0.00 0.00 0.00 0.00 0.00 0.00 0.00 0.00 0.00 0.00 0.00 0.00 0.00 0.00 0.00 0.00 0.00 0.00 0.00 0.05 0.01 0.00 0.01 0.13 0.25 0.31 0.13 0.33 0.47 0.10 0.03 0.00
0.12 0.09 0.08 0.11 0.10 0.08 0.06 0.02 0.00 0.00 0.00 0.00 0.00 0.00 0.00 0.00 0.00 0.00 0.00 0.00 0.00 0.00 0.00 0.00 0.00 0.00 0.00 0.01 0.00 0.00 0.00 0.00 0.00 0.00 0.00 0.00 0.00 0.03 0.15 0.27 0.39 0.29 0.04 0.00 0.00
0.06 0.06 0.06 0.12 0.21 0.20 0.12 0.05 0.00 0.00 0.00 0.00 0.01 0.01 0.00 0.00 0.00 0.00 0.00 0.01 0.01 0.00 0.00 0.00 0.00 0.00 0.00 0.00 0.00 0.00 0.00 0.00 0.00 0.00 0.00 0.00 0.00 0.00 0.02 0.06 0.06 0.05 0.02 0.01 0.00
0.10 0.06 0.04 0.08 0.19 0.23 0.11 0.04 0.01 0.00 0.00 0.00 0.00 0.00 0.00 0.00 0.00 0.00 0.00 0.00 0.00 0.00 0.02 0.00 0.00 0.00 0.00 0.00 0.00 0.00 0.00 0.00 0.00 0.00 0.00 0.00 0.00 0.00 0.00 0.01 0.03 0.04 0.03 0.01 0.00
0.16 0.13 0.10 0.18 0.32 0.25 0.08 0.02 0.01 0.00 0.01 0.00 0.00 0.00 0.00 0.00 0.00 0.00 0.00 0.00 0.00 0.00 0.01 0.00 0.00 0.00 0.00 0.00 0.00 0.00 0.00 0.00 0.00 0.00 0.00 0.00 0.00 0.00 0.00 0.00 0.00 0.01 0.01 0.00 0.00
0.18 0.21 0.24 0.37 0.33 0.16 0.04 0.02 0.03 0.02 0.03 0.00 0.00 0.00 0.00 0.00 0.00 0.00 0.00 0.00 0.00 0.00 0.00 0.01 0.01 0.00 0.00 0.00 0.00 0.00 0.00 0.00 0.00 0.00 0.00 0.00 0.00 0.00 0.00 0.01 0.01 0.01 0.00 0.00 0.00
0.18 0.18 0.34 0.51 0.36 0.16 0.11 0.03 0.05 0.12 0.30 0.06 0.00 0.00 0.00 0.00 0.00 0.00 0.00 0.00 0.00 0.00 0.00 0.02 0.00 0.00 0.00 0.00 0.00 0.01 0.00 0.00 0.00 0.00 0.02 0.00 0.00 0.01 0.00 0.00 0.00 0.01 0.01 0.01 0.00
0.26 0.31 0.34 0.25 0.10 0.05 0.07 0.08 0.12 0.29 0.82 0.10 0.00 0.00 0.00 0.00 0.00 0.00 0.00 0.00 0.00 0.00 0.00 0.01 0.00 0.00 0.00 0.00 0.00 0.01 0.00 0.00 0.00 0.00 0.01 0.02 0.00 0.02 0.00 0.00 0.00 0.00 0.01 0.01 0.01
0.35 0.44 0.45 0.43 0.24 0.07 0.04 0.12 0.44 0.91 0.76 0.06 0.00 0.00 0.00 0.00 0.00 0.00 0.00 0.00 0.00 0.00 0.00 0.01 0.01 0.01 0.01 0.00 0.00 0.00 0.00 0.00 0.00 0.00 0.00 0.01 0.02 0.01 0.01 0.01 0.04 0.08 0.05 0.02 0.04
0.33 0.45 0.49 0.31 0.32 0.22 0.22 0.47 1.01 0.89 0.23 0.04 0.00 0.00 0.00 0.00 0.00 0.00 0.00 0.01 0.06 0.10 0.02 0.00 0.00 0.01 0.01 0.00 0.00 0.00 0.02 0.06 0.13 0.05 0.02 0.05 0.05 0.03 0.00 0.01 0.09 0.12 0.03 0.05 0.19
0.50 0.48 0.42 0.28 0.20 0.34 0.68 1.48 1.48 0.34 0.06 0.02 0.00 0.00 0.04 0.03 0.03 0.03 0.06 0.09 0.09 0.16 0.09 0.02 0.01 0.01 0.01 0.00 0.04 0.02 0.03 0.24 0.36 0.09 0.07 0.06 0.02 0.01 0.01 0.04 0.09 0.13 0.09 0.16 0.30
0.84 0.70 0.58 0.30 0.26 0.46 1.11 1.84 0.79 0.22 0.13 0.11 0.02 0.03 0.06 0.08 0.09 0.10 0.18 0.34 0.42 0.41 0.43 0.16 0.08 0.01 0.00 0.01 0.04 0.12 0.08 0.08 0.31 0.08 0.09 0.01 0.00 0.00 0.01 0.03 0.06 0.09 0.13 0.28 0.31
0.91 0.91 0.53 0.37 0.56 0.95 1.66 1.03 0.24 0.05 0.02 0.04 0.09 0.05 0.02 0.05 0.11 0.24 0.47 0.46 0.26 0.33 0.43 0.33 0.29 0.05 0.05 0.03 0.02 0.11 0.10 0.17 0.19 0.17 0.12 0.00 0.01 0.02 0.03 0.03 0.02 0.08 0.21 0.56 0.46
1.26 1.53 0.68 0.55 1.42 2.32 1.68 0.44 0.09 0.01 0.01 0.04 0.07 0.08 0.02 0.08 0.12 0.34 0.63 0.58 0.16 0.13 0.27 0.41 0.35 0.16 0.27 0.26 0.09 0.15 0.26 0.20 0.25 0.12 0.26 0.17 0.02 0.03 0.07 0.08 0.08 0.26 0.43 0.52 0.81
1.99 1.74 0.89 1.00 1.91 1.72 0.87 0.17 0.05 0.01 0.01 0.02 0.04 0.06 0.10 0.12 0.16 0.27 0.52 0.40 0.15 0.17 0.17 0.36 0.40 0.14 0.10 0.33 0.14 0.05 0.15 0.15 0.52 0.31 0.13 0.20 0.07 0.01 0.07 0.09 0.14 0.46 0.68 0.70 0.83
2.60 1.77 1.87 1.50 1.56 0.86 0.27 0.08 0.04 0.03 0.03 0.03 0.03 0.08 0.09 0.09 0.24 0.10 0.17 0.04 0.02 0.13 0.36 0.39 0.43 0.29 0.21 0.38 0.25 0.16 0.03 0.03 0.16 0.24 0.19 0.25 0.06 0.04 0.06 0.12 0.26 0.77 0.94 0.93 0.98
2.93 2.86 3.52 2.98 0.89 0.40 0.41 0.33 0.16 0.03 0.03 0.08 0.08 0.10 0.10 0.08 0.18 0.14 0.09 0.09 0.02 0.03 0.10 0.40 0.59 0.56 0.53 0.33 0.36 0.34 0.19 0.10 0.39 0.56 0.16 0.09 0.11 0.13 0.15 0.31 0.56 1.32 1.40 1.39 1.15
3.59 1.63 1.32 1.90 1.17 0.36 0.24 0.28 0.23 0.18 0.09 0.07 0.08 0.08 0.15 0.11 0.06 0.06 0.13 0.13 0.10 0.05 0.03 0.21 0.49 0.38 0.19 0.04 0.04 0.19 0.27 0.31 0.60 0.37 0.39 0.18 0.10 0.17 0.38 0.60 0.69 0.86 1.19 1.17 1.30
3.10 0.78 0.38 0.36 0.31 0.45 0.45 0.27 0.21 0.16 0.17 0.16 0.06 0.02 0.04 0.10 0.08 0.06 0.12 0.32 0.24 0.25 0.21 0.22 0.32 0.16 0.14 0.05 0.05 0.17 0.51 0.49 0.47 0.34 0.15 0.07 0.08 0.20 0.45 0.66 0.60 0.75 0.77 1.63 1.23
2.18 0.39 0.64 0.45 0.48 0.70 0.50 0.23 0.16 0.12 0.09 0.06 0.07 0.10 0.10 0.08 0.08 0.18 0.22 0.24 0.37 0.51 0.51 0.37 0.31 0.26 0.18 0.05 0.20 0.80 0.47 0.56 1.20 0.53 0.39 0.62 0.56 0.53 0.72 0.78 0.74 1.31 2.20 1.61 0.96

GFSSW_prec_precacc_156.txt.gz
Total_Precipitation_Accumulation
0.02 0.01 0.01 0.01 0.00 0.00 0.00 0.00 0.00 0.00 0.00 0.00 0.00 0.00 0.00 0.00 0.00 0.00 0.00 0.00 0.00 0.00 0.00 0.00 0.00 0.00 0.00 0.00 0.00 0.00 0.00 0.00 0.01 0.02 0.18 0.25 0.17 0.26 0.11 0.01 0.04 0.21 1.07 0.42 0.22
0.02 0.02 0.02 0.02 0.01 0.00 0.00 0.00 0.00 0.00 0.00 0.00 0.00 0.00 0.00 0.00 0.00 0.00 0.00 0.00 0.00 0.00 0.00 0.00 0.00 0.00 0.00 0.00 0.00 0.00 0.00 0.00 0.03 0.08 0.25 0.33 0.04 0.18 0.07 0.03 0.19 0.63 1.02 0.34 0.21
0.01 0.02 0.02 0.01 0.00 0.00 0.00 0.00 0.00 0.00 0.00 0.00 0.00 0.00 0.00 0.00 0.00 0.00 0.00 0.00 0.00 0.00 0.00 0.00 0.00 0.00 0.00 0.00 0.00 0.00 0.00 0.00 0.00 0.06 0.10 0.29 0.01 0.05 0.03 0.06 0.42 0.46 0.60 0.36 0.34
0.00 0.00 0.01 0.01 0.00 0.00 0.00 0.00 0.00 0.00 0.00 0.00 0.00 0.00 0.00 0.00 0.00 0.00 0.00 0.00 0.00 0.00 0.00 0.00 0.00 0.00 0.00 0.00 0.00 0.00 0.00 0.00 0.00 0.00 0.00 0.00 0.07 0.15 0.09 0.10 0.21 0.45 0.47 0.33 0.41
0.01 0.01 0.01 0.00 0.00 0.00 0.00 0.00 0.00 0.00 0.00 0.00 0.00 0.00 0.00 0.00 0.00 0.00 0.00 0.00 0.00 0.00 0.00 0.00 0.00 0.00 0.00 0.00 0.00 0.00 0.00 0.00 0.00 0.01 0.00 0.01 0.09 0.11 0.01 0.05 0.22 0.39 0.26 0.25 0.29
0.03 0.03 0.02 0.01 0.01 0.01 0.00 0.00 0.00 0.00 0.00 0.00 0.00 0.00 0.00 0.00 0.00 0.00 0.00 0.00 0.00 0.00 0.00 0.00 0.00 0.00 0.00 0.00 0.00 0.00 0.00 0.00 0.00 0.00 0.00 0.00 0.18 0.02 0.11 0.13 0.30 0.94 0.29 0.16 0.19
0.03 0.02 0.03 0.03 0.03 0.02 0.01 0.00 0.00 0.00 0.00 0.00 0.00 0.00 0.00 0.00 0.00 0.00 0.00 0.00 0.00 0.00 0.00 0.00 0.00 0.00 0.00 0.00 0.00 0.00 0.00 0.00 0.04 0.02 0.00 0.02 0.06 0.02 0.16 0.27 0.40 0.34 0.16 0.04 0.04
0.05 0.04 0.05 0.04 0.03 0.02 0.01 0.00 0.00 0.00 0.00 0.00 0.00 0.00 0.00 0.00 0.00 0.00 0.00 0.00 0.00 0.00 0.00 0.00 0.00 0.00 0.00 0.00 0.00 0.00 0.00 0.00 0.05 0.01 0.00 0.01 0.13 0.25 0.31 0.13 0.33 0.47 0.10 0.03 0.00
0.12 0.09 0.08 0.11 0.10 0.08 0.06 0.02 0.00 0.00 0.00 0.00 0.00 0.00 0.00 0.00 0.00 0.00 0.00 0.00 0.00 0.00 0.00 0.00 0.00 0.00 0.00 0.01 0.00 0.00 0.00 0.00 0.00 0.00 0.00 0.00 0.00 0.03 0.15 0.27 0.39 0.29 0.04 0.00 0.00
0.06 0.06 0.06 0.12 0.21 0.20 0.12 0.05 0.00 0.00 0.00 0.00 0.01 0.01 0.00 0.00 0.00 0.00 0.00 0.01 0.01 0.00 0.00 0.00 0.00 0.00 0.00 0.00 0.00 0.00 0.00 0.00 0.00 0.00 0.00 0.00 0.00 0.00 0.02 0.06 0.06 0.05 0.02 0.01 0.00
0.10 0.06 0.04 0.08 0.19 0.23 0.12 0.04 0.01 0.00 0.00 0.00 0.00 0.00 0.00 0.00 0.00 0.00 0.00 0.00 0.00 0.00 0.02 0.00 0.00 0.00 0.00 0.00 0.00 0.00 0.00 0.00 0.00 0.00 0.00 0.00 0.00 0.00 0.00 0.01 0.03 0.04 0.03 0.01 0.00
0.16 0.13 0.10 0.18 0.32 0.25 0.08 0.02 0.01 0.00 0.01 0.00 0.00 0.00 0.00 0.00 0.00 0.00 0.00 0.00 0.00 0.00 0.01 0.00 0.00 0.00 0.00 0.00 0.00 0.00 0.00 0.00 0.00 0.00 0.00 0.00 0.00 0.00 0.00 0.00 0.00 0.01 0.01 0.00 0.00
0.18 0.21 0.24 0.37 0.33 0.16 0.04 0.02 0.03 0.02 0.03 0.00 0.00 0.00 0.00 0.00 0.00 0.00 0.00 0.00 0.00 0.00 0.00 0.01 0.01 0.00 0.00 0.00 0.00 0.00 0.00 0.00 0.00 0.00 0.00 0.00 0.00 0.00 0.00 0.01 0.01 0.01 0.00 0.00 0.00
0.18 0.18 0.34 0.51 0.36 0.16 0.11 0.03 0.05 0.12 0.30 0.06 0.00 0.00 0.00 0.00 0.00 0.00 0.00 0.00 0.00 0.00 0.00 0.02 0.00 0.00 0.00 0.00 0.00 0.01 0.00 0.00 0.00 0.00 0.02 0.00 0.00 0.01 0.00 0.00 0.00 0.01 0.01 0.01 0.00
0.26 0.31 0.34 0.25 0.10 0.05 0.07 0.08 0.12 0.29 0.82 0.10 0.00 0.00 0.00 0.00 0.00 0.00 0.00 0.00 0.00 0.00 0.00 0.01 0.00 0.00 0.00 0.00 0.00 0.01 0.00 0.00 0.00 0.00 0.01 0.02 0.00 0.02 0.00 0.00 0.00 0.00 0.01 0.01 0.01
0.35 0.44 0.46 0.43 0.24 0.07 0.04 0.12 0.44 0.91 0.76 0.06 0.00 0.00 0.00 0.00 0.00 0.00 0.00 0.00 0.00 0.00 0.00 0.01 0.01 0.01 0.01 0.00 0.00 0.00 0.00 0.00 0.00 0.00 0.00 0.01 0.02 0.01 0.01 0.01 0.04 0.08 0.05 0.02 0.04
0.33 0.45 0.50 0.31 0.32 0.22 0.22 0.48 1.02 0.89 0.23 0.04 0.00 0.00 0.00 0.00 0.00 0.00 0.00 0.01 0.06 0.10 0.02 0.00 0.00 0.01 0.01 0.00 0.00 0.00 0.02 0.06 0.13 0.05 0.02 0.05 0.05 0.03 0.00 0.01 0.09 0.12 0.03 0.05 0.19
0.50 0.48 0.42 0.28 0.20 0.34 0.68 1.49 1.49 0.35 0.06 0.02 0.00 0.00 0.04 0.03 0.03 0.03 0.06 0.09 0.09 0.16 0.09 0.02 0.01 0.01 0.01 0.00 0.04 0.02 0.03 0.24 0.36 0.09 0.07 0.06 0.02 0.01 0.01 0.04 0.09 0.13 0.09 0.16 0.30
0.85 0.71 0.58 0.30 0.26 0.46 1.13 1.87 0.80 0.22 0.13 0.11 0.02 0.03 0.06 0.08 0.09 0.10 0.18 0.34 0.42 0.41 0.43 0.16 0.08 0.01 0.00 0.01 0.04 0.12 0.08 0.08 0.31 0.08 0.09 0.01 0.00 0.00 0.01 0.03 0.06 0.09 0.13 0.28 0.31
0.91 0.91 0.53 0.37 0.57 0.97 1.69 1.05 0.24 0.05 0.02 0.04 0.09 0.05 0.02 0.05 0.11 0.24 0.47 0.46 0.26 0.33 0.43 0.33 0.29 0.05 0.05 0.03 0.02 0.11 0.10 0.17 0.19 0.17 0.12 0.00 0.01 0.02 0.03 0.03 0.02 0.08 0.21 0.56 0.46
1.27 1.54 0.68 0.56 1.46 2.37 1.70 0.44 0.09 0.01 0.01 0.04 0.07 0.08 0.02 0.08 0.12 0.34 0.63 0.58 0.16 0.13 0.28 0.43 0.36 0.16 0.27 0.26 0.09 0.15 0.26 0.20 0.25 0.12 0.26 0.17 0.02 0.03 0.07 0.08 0.08 0.26 0.43 0.52 0.81
1.99 1.75 0.90 1.01 1.94 1.74 0.89 0.17 0.05 0.01 0.01 0.02 0.04 0.06 0.10 0.12 0.16 0.27 0.52 0.40 0.16 0.18 0.18 0.37 0.44 0.15 0.10 0.33 0.14 0.05 0.15 0.15 0.52 0.31 0.13 0.20 0.07 0.01 0.07 0.09 0.14 0.46 0.68 0.70 0.83
2.66 1.78 1.89 1.57 1.59 0.87 0.27 0.08 0.04 0.03 0.03 0.03 0.03 0.08 0.09 0.09 0.24 0.10 0.17 0.04 0.02 0.13 0.36 0.40 0.51 0.36 0.23 0.38 0.26 0.16 0.03 0.03 0.16 0.24 0.19 0.25 0.06 0.04 0.06 0.12 0.26 0.77 0.94 0.93 0.98
2.98 2.91 3.56 3.09 0.94 0.40 0.41 0.34 0.16 0.03 0.03 0.08 0.08 0.10 0.10 0.08 0.18 0.14 0.09 0.09 0.02 0.03 0.12 0.42 0.59 0.57 0.53 0.33 0.36 0.34 0.19 0.10 0.40 0.58 0.16 0.09 0.11 0.13 0.15 0.31 0.56 1.32 1.40 1.39 1.15
3.69 1.66 1.33 1.92 1.26 0.43 0.25 0.28 0.23 0.18 0.09 0.07 0.08 0.08 0.15 0.11 0.06 0.06 0.13 0.13 0.10 0.05 0.03 0.23 0.52 0.39 0.19 0.04 0.04 0.19 0.27 0.31 0.61 0.38 0.40 0.19 0.10 0.17 0.38 0.60 0.69 0.86 1.19 1.17 1.30
3.13 0.81 0.38 0.36 0.31 0.47 0.52 0.32 0.21 0.16 0.17 0.16 0.06 0.02 0.05 0.10 0.08 0.06 0.12 0.32 0.24 0.25 0.21 0.24 0.33 0.18 0.16 0.05 0.05 0.18 0.51 0.49 0.47 0.34 0.15 0.07 0.08 0.20 0.45 0.66 0.60 0.75 0.77 1.63 1.23
2.20 0.39 0.65 0.47 0.49 0.71 0.50 0.24 0.17 0.12 0.09 0.06 0.07 0.10 0.10 0.08 0.09 0.19 0.23 0.25 0.39 0.53 0.52 0.41 0.38 0.32 0.25 0.06 0.25 0.91 0.48 0.56 1.20 0.53 0.39 0.62 0.56 0.53 0.72 0.78 0.74 1.31 2.20 1.61 0.96

GFSSW_prec_precacc_159.txt.gz
Total_Precipitation_Accumulation
0.02 0.01 0.01 0.01 0.00 0.00 0.00 0.00 0.00 0.00 0.00 0.00 0.00 0.00 0.00 0.00 0.00 0.00 0.00 0.00 0.00 0.00 0.00 0.00 0.00 0.00 0.00 0.00 0.00 0.00 0.00 0.00 0.01 0.02 0.18 0.25 0.17 0.26 0.11 0.01 0.04 0.21 1.07 0.42 0.22
0.02 0.02 0.02 0.02 0.01 0.00 0.00 0.00 0.00 0.00 0.00 0.00 0.00 0.00 0.00 0.00 0.00 0.00 0.00 0.00 0.00 0.00 0.00 0.00 0.00 0.00 0.00 0.00 0.00 0.00 0.00 0.00 0.03 0.08 0.25 0.33 0.04 0.18 0.07 0.03 0.19 0.63 1.02 0.34 0.21
0.01 0.02 0.02 0.01 0.00 0.00 0.00 0.00 0.00 0.00 0.00 0.00 0.00 0.00 0.00 0.00 0.00 0.00 0.00 0.00 0.00 0.00 0.00 0.00 0.00 0.00 0.00 0.00 0.00 0.00 0.00 0.00 0.00 0.06 0.10 0.29 0.01 0.05 0.03 0.06 0.42 0.46 0.60 0.36 0.34
0.01 0.01 0.01 0.01 0.00 0.00 0.00 0.00 0.00 0.00 0.00 0.00 0.00 0.00 0.00 0.00 0.00 0.00 0.00 0.00 0.00 0.00 0.00 0.00 0.00 0.00 0.00 0.00 0.00 0.00 0.00 0.00 0.00 0.00 0.00 0.00 0.07 0.15 0.09 0.10 0.21 0.45 0.47 0.33 0.41
0.02 0.01 0.01 0.00 0.00 0.00 0.00 0.00 0.00 0.00 0.00 0.00 0.00 0.00 0.00 0.00 0.00 0.00 0.00 0.00 0.00 0.00 0.00 0.00 0.00 0.00 0.00 0.00 0.00 0.00 0.00 0.00 0.00 0.01 0.00 0.01 0.09 0.11 0.01 0.05 0.22 0.39 0.26 0.25 0.29
0.04 0.04 0.03 0.02 0.01 0.01 0.00 0.00 0.00 0.00 0.00 0.00 0.00 0.00 0.00 0.00 0.00 0.00 0.00 0.00 0.00 0.00 0.00 0.00 0.00 0.00 0.00 0.00 0.00 0.00 0.00 0.00 0.00 0.00 0.00 0.00 0.18 0.02 0.11 0.13 0.30 0.94 0.29 0.16 0.19
0.03 0.03 0.03 0.03 0.03 0.02 0.01 0.00 0.00 0.00 0.00 0.00 0.00 0.00 0.00 0.00 0.00 0.00 0.00 0.00 0.00 0.00 0.00 0.00 0.00 0.00 0.00 0.00 0.00 0.00 0.00 0.00 0.04 0.02 0.00 0.02 0.06 0.02 0.16 0.27 0.40 0.34 0.16 0.04 0.04
0.05 0.04 0.05 0.04 0.03 0.02 0.01 0.00 0.00 0.00 0.00 0.00 0.00 0.00 0.00 0.00 0.00 0.00 0.00 0.00 0.00 0.00 0.00 0.00 0.00 0.00 0.00 0.00 0.00 0.00 0.00 0.00 0.05 0.01 0.00 0.01 0.13 0.25 0.31 0.13 0.33 0.47 0.10 0.03 0.00
0.12 0.09 0.08 0.11 0.10 0.08 0.06 0.02 0.00 0.00 0.00 0.00 0.00 0.00 0.00 0.00 0.00 0.00 0.00 0.00 0.00 0.00 0.00 0.00 0.00 0.00 0.00 0.01 0.00 0.00 0.00 0.00 0.00 0.00 0.00 0.00 0.00 0.03 0.15 0.27 0.39 0.29 0.04 0.00 0.00
0.06 0.06 0.06 0.12 0.21 0.20 0.12 0.05 0.00 0.00 0.00 0.00 0.01 0.01 0.00 0.00 0.00 0.00 0.00 0.01 0.01 0.00 0.00 0.00 0.00 0.00 0.00 0.00 0.00 0.00 0.00 0.00 0.00 0.00 0.00 0.00 0.00 0.00 0.02 0.06 0.06 0.05 0.02 0.01 0.00
0.10 0.06 0.04 0.08 0.19 0.23 0.12 0.04 0.01 0.00 0.00 0.00 0.00 0.00 0.00 0.00 0.00 0.00 0.00 0.00 0.00 0.00 0.02 0.00 0.00 0.00 0.00 0.00 0.00 0.00 0.00 0.00 0.00 0.00 0.00 0.00 0.00 0.00 0.00 0.01 0.03 0.04 0.03 0.01 0.00
0.16 0.13 0.10 0.18 0.32 0.25 0.09 0.02 0.01 0.00 0.01 0.00 0.00 0.00 0.00 0.00 0.00 0.00 0.00 0.00 0.00 0.00 0.01 0.00 0.00 0.00 0.00 0.00 0.00 0.00 0.00 0.00 0.00 0.00 0.00 0.00 0.00 0.00 0.00 0.00 0.00 0.01 0.01 0.00 0.00
0.18 0.21 0.24 0.37 0.33 0.16 0.04 0.02 0.03 0.02 0.03 0.00 0.00 0.00 0.00 0.00 0.00 0.00 0.00 0.00 0.00 0.00 0.00 0.01 0.01 0.00 0.00 0.00 0.00 0.00 0.00 0.00 0.00 0.00 0.00 0.00 0.00 0.00 0.00 0.01 0.01 0.01 0.00 0.00 0.00
0.18 0.18 0.34 0.51 0.36 0.16 0.11 0.03 0.05 0.12 0.30 0.06 0.00 0.00 0.00 0.00 0.00 0.00 0.00 0.00 0.00 0.00 0.00 0.02 0.00 0.00 0.00 0.00 0.00 0.01 0.00 0.00 0.00 0.00 0.02 0.00 0.00 0.01 0.00 0.00 0.00 0.01 0.01 0.01 0.00
0.26 0.31 0.34 0.25 0.10 0.05 0.07 0.08 0.12 0.29 0.82 0.10 0.00 0.00 0.00 0.00 0.00 0.00 0.00 0.00 0.00 0.00 0.00 0.01 0.00 0.00 0.00 0.00 0.00 0.01 0.00 0.00 0.00 0.00 0.01 0.02 0.00 0.02 0.00 0.00 0.00 0.00 0.01 0.01 0.01
0.35 0.44 0.46 0.43 0.24 0.07 0.04 0.12 0.44 0.91 0.76 0.06 0.00 0.00 0.00 0.00 0.00 0.00 0.00 0.00 0.00 0.00 0.00 0.01 0.01 0.01 0.01 0.00 0.00 0.00 0.00 0.00 0.00 0.00 0.00 0.01 0.02 0.01 0.01 0.01 0.04 0.08 0.05 0.02 0.04
0.33 0.45 0.50 0.31 0.32 0.22 0.22 0.48 1.02 0.89 0.23 0.04 0.00 0.00 0.00 0.00 0.00 0.00 0.00 0.01 0.06 0.10 0.02 0.00 0.00 0.01 0.01 0.00 0.00 0.00 0.02 0.06 0.13 0.05 0.02 0.05 0.05 0.03 0.00 0.01 0.09 0.12 0.03 0.05 0.19
0.51 0.49 0.42 0.28 0.20 0.34 0.69 1.51 1.49 0.35 0.06 0.02 0.00 0.00 0.04 0.03 0.03 0.03 0.06 0.09 0.09 0.16 0.09 0.02 0.01 0.01 0.01 0.00 0.04 0.02 0.03 0.24 0.36 0.09 0.07 0.06 0.02 0.01 0.01 0.04 0.09 0.13 0.09 0.16 0.30
0.87 0.71 0.58 0.30 0.26 0.46 1.15 1.89 0.80 0.22 0.13 0.11 0.02 0.03 0.06 0.08 0.09 0.10 0.18 0.34 0.42 0.41 0.43 0.16 0.08 0.01 0.00 0.01 0.04 0.12 0.08 0.08 0.31 0.08 0.09 0.01 0.00 0.00 0.01 0.03 0.06 0.09 0.13 0.28 0.31
0.91 0.91 0.53 0.37 0.58 0.97 1.72 1.06 0.24 0.05 0.02 0.04 0.09 0.05 0.02 0.05 0.11 0.24 0.47 0.46 0.26 0.33 0.44 0.33 0.29 0.05 0.05 0.03 0.02 0.11 0.10 0.17 0.21 0.19 0.12 0.00 0.01 0.02 0.03 0.03 0.02 0.08 0.21 0.56 0.46
1.27 1.54 0.68 0.56 1.49 2.42 1.71 0.45 0.09 0.01 0.01 0.04 0.07 0.08 0.02 0.08 0.12 0.34 0.63 0.58 0.16 0.13 0.28 0.43 0.37 0.16 0.27 0.26 0.09 0.15 0.26 0.20 0.25 0.12 0.26 0.17 0.02 0.03 0.07 0.08 0.08 0.26 0.43 0.52 0.81
2.02 1.76 0.90 1.02 1.96 1.79 0.91 0.17 0.05 0.01 0.01 0.02 0.04 0.06 0.10 0.12 0.16 0.27 0.52 0.40 0.16 0.18 0.18 0.38 0.46 0.15 0.10 0.33 0.14 0.05 0.15 0.15 0.52 0.31 0.13 0.21 0.07 0.01 0.07 0.09 0.14 0.46 0.68 0.70 0.83
2.72 1.79 1.89 1.60 1.61 0.88 0.27 0.08 0.04 0.03 0.03 0.03 0.03 0.08 0.09 0.09 0.24 0.10 0.17 0.04 0.02 0.13 0.37 0.41 0.53 0.38 0.23 0.38 0.26 0.16 0.03 0.03 0.16 0.26 0.21 0.26 0.06 0.04 0.06 0.12 0.26 0.77 0.94 0.93 0.98
3.04 2.98 3.59 3.16 0.95 0.40 0.41 0.34 0.16 0.03 0.03 0.08 0.08 0.10 0.10 0.08 0.18 0.14 0.09 0.09 0.02 0.03 0.12 0.43 0.60 0.57 0.53 0.33 0.36 0.34 0.19 0.10 0.41 0.60 0.17 0.09 0.11 0.13 0.15 0.31 0.56 1.32 1.40 1.39 1.15
3.82 1.75 1.35 1.97 1.30 0.44 0.25 0.28 0.23 0.18 0.09 0.07 0.08 0.08 0.15 0.11 0.06 0.06 0.13 0.13 0.10 0.05 0.03 0.23 0.52 0.39 0.19 0.04 0.04 0.19 0.27 0.31 0.61 0.38 0.40 0.19 0.10 0.17 0.38 0.60 0.69 0.86 1.19 1.17 1.30
3.24 0.86 0.39 0.36 0.31 0.49 0.59 0.36 0.21 0.16 0.17 0.16 0.06 0.02 0.05 0.10 0.08 0.06 0.12 0.32 0.24 0.25 0.22 0.26 0.34 0.18 0.16 0.05 0.05 0.18 0.51 0.49 0.47 0.34 0.15 0.07 0.08 0.20 0.45 0.66 0.60 0.75 0.77 1.63 1.23
2.24 0.39 0.66 0.48 0.49 0.71 0.51 0.28 0.18 0.13 0.10 0.06 0.07 0.11 0.10 0.08 0.09 0.19 0.23 0.25 0.39 0.53 0.52 0.42 0.40 0.34 0.25 0.06 0.27 0.94 0.48 0.56 1.20 0.53 0.39 0.63 0.57 0.53 0.72 0.78 0.74 1.31 2.20 1.61 0.96